KE5JZM-1 Weather Reports


time (UTC)temp
C
wind
direction
speed
KPH
gust
KPH
rain 1hr
cm
rain 24hr
cm
rain mn
cm
humidity
%
barometer
mb
20260510154053 24 6 3.2 6.4 0.00 1.96 0.00 64 1016.4
20260510154015 24 71 3.2 6.4 0.00 1.96 0.00 65 1016.4
20260510153853 24 357 3.2 6.4 0.00 1.98 0.00 64 1016.4
20260510153753 24 80 3.2 6.4 0.00 1.98 0.00 65 1016.4
20260510153653 24 75 3.2 6.4 0.00 1.98 0.00 64 1016.4
20260510153555 24 82 3.2 6.4 0.00 1.98 0.00 64 1016.4
20260510153452 24 16 3.2 8.0 0.00 1.98 0.00 64 1016.4
20260510153354 24 34 3.2 8.0 0.00 1.98 0.00 64 1016.4
20260510153255 24 27 3.2 8.0 0.00 1.98 0.00 64 1016.5
20260510153154 24 296 3.2 9.7 0.00 1.98 0.00 64 1016.5
20260510153055 24 82 4.8 9.7 0.00 1.98 0.00 64 1016.4
20260510152954 24 14 4.8 11.3 0.00 1.98 0.00 64 1016.5
20260510152854 24 45 4.8 11.3 0.00 1.98 0.00 64 1016.5
20260510152754 24 73 4.8 11.3 0.00 1.98 0.00 64 1016.5
20260510152642 24 91 4.8 11.3 0.00 1.98 0.00 64 1016.5
20260510152542 24 5 4.8 11.3 0.00 1.98 0.00 64 1016.4
20260510152513 24 93 4.8 11.3 0.00 1.98 0.00 64 1016.5
20260510152343 24 33 3.2 11.3 0.00 1.98 0.00 64 1016.5
20260510152243 24 21 3.2 11.3 0.00 1.98 0.00 64 1016.5
20260510152143 24 50 3.2 11.3 0.00 1.98 0.00 64 1016.5
20260510152043 24 163 3.2 11.3 0.00 1.98 0.00 64 1016.5
20260510151943 24 95 3.2 9.7 0.00 2.01 0.00 64 1016.5
20260510151843 24 101 3.2 11.3 0.00 2.03 0.00 64 1016.5
20260510151743 24 95 3.2 11.3 0.00 2.03 0.00 64 1016.5
20260510151643 24 30 3.2 11.3 0.00 2.03 0.00 64 1016.5
20260510151542 24 359 3.2 11.3 0.00 2.03 0.00 64 1016.5
20260510151440 24 26 3.2 11.3 0.00 2.06 0.00 64 1016.5
20260510151331 24 81 3.2 11.3 0.00 2.11 0.00 64 1016.6
20260510151230 24 4 3.2 11.3 0.00 2.16 0.00 64 1016.5
20260510151131 24 0 3.2 11.3 0.00 2.16 0.00 64 1016.5
20260510151031 24 18 3.2 11.3 0.00 2.21 0.00 64 1016.5
20260510150931 24 270 3.2 11.3 0.00 2.26 0.00 64 1016.5
20260510150830 24 82 3.2 9.7 0.00 2.29 0.00 64 1016.5
20260510150731 24 89 3.2 9.7 0.00 2.36 0.00 64 1016.5
20260510150625 24 16 3.2 6.4 0.00 2.41 0.00 64 1016.5
20260510150525 24 28 3.2 6.4 0.00 2.46 0.00 64 1016.5
20260510150425 24 316 3.2 6.4 0.00 2.49 0.00 64 1016.5
20260510150324 24 80 3.2 6.4 0.00 2.49 0.00 64 1016.5
20260510150225 24 86 3.2 6.4 0.00 2.49 0.00 64 1016.5
20260510150125 24 36 3.2 6.4 0.00 2.49 0.00 64 1016.5
20260510150024 24 120 3.2 6.4 0.00 2.49 0.00 64 1016.6
20260510145925 24 5 3.2 4.8 0.00 2.49 0.00 64 1016.5
20260510145824 24 91 3.2 4.8 0.00 2.49 0.00 64 1016.5
20260510145725 24 30 3.2 4.8 0.00 2.51 0.00 64 1016.5
20260510145624 24 52 3.2 4.8 0.00 2.51 0.00 64 1016.5
20260510145523 24 62 3.2 4.8 0.00 2.51 0.00 64 1016.5
20260510145424 24 74 3.2 4.8 0.00 2.54 0.00 64 1016.5
20260510145323 24 15 3.2 4.8 0.00 2.54 0.00 64 1016.5
20260510145224 24 1 3.2 4.8 0.00 2.57 0.00 64 1016.5
20260510145123 24 68 3.2 4.8 0.00 2.59 0.00 64 1016.5
20260510145023 24 73 3.2 8.0 0.00 2.59 0.00 64 1016.5
20260510144923 24 246 3.2 8.0 0.00 2.64 0.00 64 1016.5
20260510144824 24 6 3.2 8.0 0.00 2.69 0.00 64 1016.5
20260510144723 24 334 3.2 8.0 0.00 2.77 0.00 64 1016.5
20260510144624 24 0 3.2 8.0 0.00 2.87 0.00 64 1016.5
20260510144524 24 335 3.2 8.0 0.00 2.97 0.00 64 1016.5
20260510144423 24 279 3.2 8.0 0.00 2.97 0.00 64 1016.5
20260510144324 24 348 3.2 8.0 0.00 2.97 0.00 64 1016.5
20260510144223 24 240 3.2 8.0 0.00 2.97 0.00 64 1016.5
20260510144124 24 357 3.2 8.0 0.00 3.00 0.00 64 1016.5
20260510144010 24 142 3.2 8.0 0.00 3.02 0.00 64 1016.4
20260510143910 24 39 3.2 6.4 0.00 3.05 0.00 64 1016.4
20260510143810 24 73 3.2 6.4 0.00 3.10 0.00 64 1016.4
20260510143710 24 149 4.8 6.4 0.00 3.12 0.00 64 1016.5
20260510143611 24 121 4.8 6.4 0.00 3.12 0.00 63 1016.5
20260510143511 24 124 4.8 6.4 0.00 3.15 0.00 64 1016.5
20260510143410 24 317 4.8 6.4 0.00 3.15 0.00 63 1016.5
20260510143311 24 316 4.8 6.4 0.00 3.15 0.00 64 1016.5
20260510143210 24 130 4.8 6.4 0.00 3.15 0.00 64 1016.5
20260510143110 24 132 4.8 6.4 0.00 3.15 0.00 63 1016.5
20260510143011 24 107 4.8 6.4 0.00 3.15 0.00 63 1016.5
20260510142911 24 149 3.2 6.4 0.00 3.15 0.00 63 1016.4
20260510142811 24 133 3.2 6.4 0.00 3.15 0.00 64 1016.4
20260510142710 24 122 3.2 6.4 0.00 3.15 0.00 63 1016.4
20260510142611 24 332 3.2 6.4 0.00 3.15 0.00 63 1016.5
20260510142511 24 307 3.2 6.4 0.00 3.15 0.00 63 1016.5
20260510142411 24 319 3.2 6.4 0.00 3.15 0.00 63 1016.5
20260510142310 24 134 3.2 6.4 0.00 3.15 0.00 63 1016.5
20260510142210 24 132 3.2 4.8 0.00 3.15 0.00 63 1016.6
20260510142110 24 316 3.2 4.8 0.00 3.15 0.00 63 1016.5
20260510142011 24 315 3.2 4.8 0.00 3.17 0.00 63 1016.6
20260510141911 24 316 3.2 3.2 0.00 3.17 0.00 63 1016.5
20260510141811 24 134 3.2 4.8 0.00 3.17 0.00 63 1016.6
20260510141710 24 316 3.2 4.8 0.00 3.17 0.00 63 1016.5
20260510141611 24 316 3.2 4.8 0.00 3.20 0.00 63 1016.5
20260510141511 24 315 3.2 4.8 0.00 3.20 0.00 63 1016.5
20260510141411 24 316 3.2 4.8 0.00 3.20 0.00 63 1016.5
20260510141311 24 315 3.2 4.8 0.00 3.23 0.00 63 1016.5
20260510141212 24 315 3.2 6.4 0.00 3.23 0.00 63 1016.5
20260510141111 24 132 3.2 6.4 0.00 3.25 0.00 63 1016.5
20260510141011 24 315 3.2 6.4 0.00 3.25 0.00 63 1016.5
20260510140910 24 313 3.2 6.4 0.00 3.25 0.00 63 1016.4
20260510140811 24 316 3.2 6.4 0.00 3.25 0.00 63 1016.5
20260510140711 24 326 3.2 6.4 0.00 3.25 0.00 63 1016.4
20260510140611 24 317 1.6 6.4 0.00 3.25 0.00 63 1016.4
20260510140511 24 306 1.6 6.4 0.00 3.25 0.00 63 1016.4
20260510140411 24 311 1.6 6.4 0.00 3.25 0.00 63 1016.4
20260510140311 24 316 1.6 6.4 0.00 3.25 0.00 63 1016.4
20260510140210 24 328 1.6 6.4 0.00 3.25 0.00 63 1016.4
20260510140157 24 310 1.6 3.2 0.00 3.25 0.00 63 1016.4
20260510140012 24 318 1.6 3.2 0.00 3.25 0.00 63 1016.3
20260510135943 24 315 1.6 3.2 0.00 3.28 0.00 63 1016.3
20260510135811 24 321 1.6 3.2 0.00 3.28 0.00 63 1016.3
20260510135724 24 325 1.6 1.6 0.00 3.28 0.00 63 1016.3
20260510135612 24 304 1.6 1.6 0.00 3.28 0.00 63 1016.3
20260510135511 24 317 1.6 1.6 0.00 3.28 0.00 63 1016.4
20260510135501 24 326 1.6 1.6 0.00 3.28 0.00 63 1016.4
20260510135311 24 322 1.6 1.6 0.00 3.28 0.00 63 1016.3
20260510135211 24 325 1.6 1.6 0.00 3.28 0.00 63 1016.3
20260510135111 24 304 1.6 1.6 0.00 3.28 0.00 63 1016.3
20260510135012 24 330 1.6 1.6 0.00 3.28 0.00 63 1016.3
20260510134911 24 309 1.6 1.6 0.00 3.28 0.00 63 1016.4
20260510134809 24 316 1.6 1.6 0.00 3.28 0.00 63 1016.3
20260510134710 24 323 1.6 1.6 0.00 3.28 0.00 63 1016.4
20260510134609 24 312 1.6 1.6 0.00 3.28 0.00 63 1016.3
20260510134456 24 301 1.6 1.6 0.00 3.28 0.00 63 1016.3
20260510134446 24 303 1.6 1.6 0.00 3.28 0.00 63 1016.3
20260510134224 24 330 1.6 1.6 0.00 3.28 0.00 63 1016.3
20260510134125 24 332 1.6 1.6 0.00 3.28 0.00 63 1016.3
20260510134025 24 287 1.6 1.6 0.00 3.28 0.00 63 1016.3
20260510133937 24 302 1.6 1.6 0.00 3.28 0.00 63 1016.3
20260510133929 24 320 1.6 1.6 0.00 3.28 0.00 63 1016.3
20260510133725 24 320 1.6 1.6 0.00 3.28 0.00 63 1016.3
20260510133625 24 310 1.6 1.6 0.00 3.28 0.00 63 1016.3
20260510133527 24 336 1.6 1.6 0.00 3.28 0.00 63 1016.3
20260510133424 24 314 1.6 1.6 0.00 3.28 0.00 63 1016.3
20260510133224 24 317 1.6 1.6 0.00 3.28 0.00 63 1016.3
20260510133125 24 326 1.6 1.6 0.00 3.28 0.00 63 1016.3
20260510133025 24 308 1.6 1.6 0.00 3.28 0.00 63 1016.3
20260510132937 24 134 1.6 1.6 0.00 3.30 0.00 63 1016.2
20260510132930 24 320 1.6 1.6 0.00 3.30 0.00 63 1016.2
20260510132725 24 316 1.6 1.6 0.00 3.33 0.00 63 1016.1
20260510132625 24 322 1.6 1.6 0.00 3.35 0.00 63 1016.1
20260510132527 24 310 1.6 1.6 0.00 3.35 0.00 63 1016.1
20260510132424 24 309 1.6 1.6 0.00 3.35 0.00 63 1016.0
20260510132225 24 320 1.6 1.6 0.00 3.35 0.00 63 1016.0
20260510132125 24 315 1.6 1.6 0.00 3.38 0.00 63 1016.0
20260510132024 24 312 1.6 1.6 0.00 3.40 0.00 63 1016.0
20260510131925 24 311 1.6 1.6 0.00 3.43 0.00 63 1015.9
20260510131725 24 310 1.6 1.6 0.00 3.45 0.00 63 1015.9
20260510131625 24 318 1.6 1.6 0.00 3.45 0.00 63 1015.8
20260510131527 24 326 1.6 1.6 0.00 3.45 0.00 63 1015.7
20260510131426 24 322 1.6 1.6 0.00 3.45 0.00 63 1015.7
20260510131225 24 319 1.6 1.6 0.00 3.48 0.00 63 1015.7
20260510131125 24 312 1.6 1.6 0.00 3.48 0.00 63 1015.7
20260510131025 24 314 1.6 1.6 0.00 3.51 0.00 63 1015.7
20260510130925 24 316 1.6 1.6 0.00 3.51 0.00 63 1015.7
20260510130726 24 322 1.6 1.6 0.00 3.56 0.00 63 1015.7
20260510130625 24 319 1.6 1.6 0.00 3.56 0.00 63 1015.7
20260510130527 24 306 1.6 1.6 0.00 3.58 0.00 63 1015.7
20260510130426 24 311 1.6 1.6 0.00 3.58 0.00 63 1015.7
20260510130226 24 326 1.6 1.6 0.00 3.66 0.00 63 1015.7
20260510130125 24 310 1.6 1.6 0.00 3.68 0.00 63 1015.7
20260510130025 24 310 1.6 1.6 0.00 3.86 0.00 63 1015.7
20260510125937 24 308 1.6 1.6 0.00 3.86 0.00 63 1015.7
20260510125930 24 316 1.6 1.6 0.00 4.09 0.00 63 1015.7
20260510125726 24 317 1.6 1.6 0.00 4.09 0.00 63 1015.6
20260510125625 24 317 1.6 1.6 0.00 4.22 0.00 63 1015.6
20260510125527 24 321 1.6 1.6 0.00 4.22 0.00 63 1015.6
20260510125425 24 315 1.6 1.6 0.00 4.24 0.00 63 1015.5
20260510125226 24 315 1.6 1.6 0.00 4.27 0.00 63 1015.5
20260510125125 24 316 1.6 1.6 0.00 4.29 0.00 62 1015.5
20260510125025 24 316 1.6 1.6 0.00 4.29 0.00 62 1015.5
20260510124937 24 315 1.6 1.6 0.00 4.29 0.00 62 1015.5
20260510124930 24 316 1.6 1.6 0.00 4.32 0.00 62 1015.5
20260510124726 24 315 1.6 1.6 0.00 4.32 0.00 62 1015.5
20260510124625 24 315 1.6 1.6 0.00 4.32 0.00 62 1015.5
20260510124527 24 316 1.6 1.6 0.00 4.32 0.00 62 1015.5
20260510124426 24 316 1.6 1.6 0.00 4.32 0.00 62 1015.5
20260510124226 24 315 1.6 1.6 0.00 4.32 0.00 62 1015.5
20260510124126 24 315 1.6 1.6 0.00 4.32 0.00 62 1015.5
20260510124024 24 314 1.6 1.6 0.00 4.32 0.00 62 1015.5
20260510123936 24 316 1.6 1.6 0.00 4.32 0.00 62 1015.5
20260510123929 24 315 1.6 1.6 0.00 4.32 0.00 62 1015.5
20260510123723 24 316 1.6 1.6 0.00 4.32 0.00 62 1015.5
20260510123624 24 315 1.6 1.6 0.00 4.32 0.00 62 1015.5
20260510123526 24 315 1.6 1.6 0.00 4.32 0.00 61 1015.5
20260510123411 24 316 1.6 1.6 0.00 4.32 0.00 61 1015.5
20260510123211 24 315 1.6 1.6 0.00 4.32 0.00 61 1015.4
20260510123110 24 316 1.6 1.6 0.00 4.32 0.00 61 1015.4
20260510123011 24 316 1.6 1.6 0.00 4.32 0.00 62 1015.4
20260510122911 24 316 1.6 1.6 0.00 4.32 0.00 62 1015.4
20260510122710 24 315 1.6 1.6 0.00 4.32 0.00 63 1015.4
20260510122611 24 316 1.6 1.6 0.00 4.32 0.00 63 1015.4
20260510122513 24 316 1.6 1.6 0.00 4.32 0.00 63 1015.4
20260510122410 24 316 1.6 1.6 0.00 4.32 0.00 63 1015.4
20260510122211 24 316 1.6 1.6 0.00 4.32 0.00 63 1015.3
20260510122111 24 316 1.6 1.6 0.00 4.32 0.00 63 1015.3
20260510122011 24 316 1.6 1.6 0.00 4.32 0.00 63 1015.3
20260510121922 24 316 1.6 1.6 0.00 4.32 0.00 64 1015.2
20260510121915 24 316 1.6 1.6 0.00 4.32 0.00 63 1015.2
20260510121711 24 316 1.6 1.6 0.00 4.32 0.00 63 1015.2
20260510121611 24 315 1.6 1.6 0.00 4.32 0.00 64 1015.2
20260510121512 24 317 0.0 1.6 0.00 4.32 0.00 64 1015.1
20260510121411 24 315 0.0 1.6 0.00 4.32 0.00 64 1015.1
20260510121211 24 319 0.0 1.6 0.00 4.32 0.00 64 1015.1
20260510121110 24 315 0.0 1.6 0.00 4.32 0.00 64 1015.0
20260510121012 24 320 0.0 1.6 0.00 4.32 0.00 64 1015.0
20260510120911 24 317 0.0 1.6 0.00 4.32 0.00 64 1015.0
20260510120711 24 320 1.6 1.6 0.00 4.32 0.00 64 1015.1
20260510120611 24 315 1.6 1.6 0.00 4.32 0.00 64 1015.0
20260510120513 24 315 1.6 1.6 0.00 4.32 0.00 64 1015.0
20260510120411 24 318 1.6 1.6 0.00 4.32 0.00 64 1015.0
20260510120211 24 320 1.6 1.6 0.00 4.32 0.00 64 1015.0
20260510120110 24 320 1.6 1.6 0.00 4.32 0.00 64 1015.0
20260510120011 24 317 1.6 1.6 0.00 4.32 0.00 64 1014.9
20260510115909 24 311 1.6 1.6 0.00 4.32 0.00 64 1014.8
20260510115710 24 312 0.0 1.6 0.00 4.32 0.00 64 1014.7
20260510115609 24 317 0.0 1.6 0.00 4.32 0.00 64 1014.7
20260510115512 24 304 0.0 1.6 0.00 4.32 0.00 64 1014.7
20260510115410 24 324 0.0 1.6 0.00 4.32 0.00 64 1014.7
20260510115210 24 316 0.0 1.6 0.00 4.32 0.00 64 1014.7
20260510115109 24 321 0.0 1.6 0.00 4.32 0.00 64 1014.6
20260510115010 24 315 0.0 1.6 0.00 4.32 0.00 64 1014.6
20260510114909 24 313 0.0 1.6 0.00 4.32 0.00 64 1014.6
20260510114710 24 313 0.0 1.6 0.00 4.32 0.00 64 1014.5
20260510114610 24 305 0.0 1.6 0.00 4.32 0.00 64 1014.5
20260510114512 24 313 0.0 1.6 0.00 4.32 0.00 64 1014.5
20260510114410 24 324 0.0 1.6 0.00 4.32 0.00 64 1014.5
20260510114210 24 312 1.6 1.6 0.00 4.32 0.00 64 1014.4
20260510114110 24 310 1.6 1.6 0.00 4.32 0.00 64 1014.4
20260510114010 24 305 1.6 1.6 0.00 4.32 0.00 64 1014.4
20260510113910 24 320 1.6 1.6 0.00 4.32 0.00 64 1014.4
20260510113710 24 317 1.6 1.6 0.00 4.32 0.00 64 1014.4
20260510113610 24 311 1.6 1.6 0.00 4.32 0.00 64 1014.4
20260510113512 24 311 1.6 1.6 0.00 4.32 0.00 64 1014.3
20260510113410 24 323 1.6 1.6 0.00 4.32 0.00 64 1014.3
20260510113211 24 311 1.6 1.6 0.00 4.32 0.00 64 1014.2
20260510113110 24 308 1.6 1.6 0.00 4.32 0.00 64 1014.3
20260510113011 24 328 1.6 1.6 0.00 4.32 0.00 64 1014.3
20260510112910 24 319 1.6 1.6 0.00 4.32 0.00 64 1014.2
20260510112658 24 305 1.6 1.6 0.00 4.32 0.00 64 1014.2
20260510112542 24 314 1.6 1.6 0.00 4.32 0.00 64 1014.2
20260510112443 24 316 1.6 1.6 0.00 4.32 0.00 64 1014.2
20260510112343 24 317 1.6 3.2 0.00 4.32 0.00 64 1014.1
20260510112243 24 316 1.6 3.2 0.00 4.32 0.00 64 1014.1
20260510112143 24 312 1.6 3.2 0.00 4.32 0.00 64 1014.1
20260510112043 24 310 1.6 3.2 0.00 4.32 0.00 64 1014.1
20260510111943 24 312 1.6 11.3 0.00 4.32 0.00 64 1014.1
20260510111843 24 321 1.6 11.3 0.00 4.32 0.00 64 1014.1
20260510111744 24 319 1.6 11.3 0.00 4.32 0.00 64 1014.0
20260510111643 24 310 1.6 11.3 0.00 4.32 0.00 64 1014.0
20260510111543 24 314 1.6 11.3 0.00 4.32 0.00 64 1013.9
20260510111435 24 305 1.6 11.3 0.00 4.32 0.00 64 1013.9
20260510111334 24 305 1.6 11.3 0.00 4.32 0.00 64 1013.9
20260510111234 24 316 1.6 11.3 0.00 4.32 0.00 64 1013.9
20260510111134 24 316 1.6 11.3 0.00 4.32 0.00 64 1013.9
20260510111034 24 316 1.6 11.3 0.00 4.32 0.00 64 1013.9
20260510110928 24 310 0.0 3.2 0.00 4.32 0.00 64 1013.9
20260510110828 24 306 0.0 3.2 0.00 4.32 0.00 64 1013.9
20260510110729 24 316 0.0 1.6 0.00 4.32 0.00 64 1013.9
20260510110628 24 322 0.0 1.6 0.00 4.32 0.00 64 1013.8
20260510110529 24 318 0.0 1.6 0.00 4.32 0.00 64 1013.8
20260510110429 24 310 0.0 1.6 0.00 4.32 0.00 63 1013.7
20260510110404 24 306 0.0 1.6 0.00 4.32 0.00 64 1013.7
20260510110228 24 308 0.0 1.6 0.00 4.32 0.00 63 1013.7
20260510110129 24 319 0.0 1.6 0.00 4.32 0.00 63 1013.7
20260510110028 24 316 0.0 1.6 0.00 4.32 0.00 63 1013.7
20260510105929 24 312 0.0 1.6 0.00 4.32 0.00 63 1013.7
20260510105828 24 317 1.6 1.6 0.00 4.32 0.00 64 1013.7
20260510105729 24 323 1.6 1.6 0.00 4.32 0.00 64 1013.6
20260510105628 24 314 0.0 1.6 0.00 4.32 0.00 64 1013.6
20260510105529 24 314 1.6 1.6 0.00 4.32 0.00 64 1013.5
20260510105429 24 309 1.6 1.6 0.00 4.32 0.00 64 1013.5
20260510105328 24 311 1.6 1.6 0.00 4.32 0.00 64 1013.5
20260510105228 24 314 1.6 1.6 0.00 4.32 0.00 64 1013.5
20260510105128 24 318 1.6 1.6 0.00 4.32 0.00 64 1013.5
20260510105029 24 331 0.0 1.6 0.00 4.32 0.00 64 1013.4
20260510104928 24 302 1.6 3.2 0.00 4.32 0.00 64 1013.4
20260510104829 24 307 1.6 3.2 0.00 4.32 0.00 64 1013.4
20260510104728 24 313 1.6 3.2 0.00 4.32 0.00 64 1013.4
20260510104629 24 204 1.6 3.2 0.00 4.32 0.00 64 1013.4
20260510104528 24 315 1.6 3.2 0.00 4.32 0.00 64 1013.3
20260510104429 24 291 1.6 3.2 0.00 4.32 0.00 63 1013.3
20260510104328 24 316 1.6 3.2 0.00 4.32 0.00 63 1013.3
20260510104228 24 309 1.6 3.2 0.00 4.32 0.00 63 1013.2
20260510104136 24 319 1.6 3.2 0.00 4.32 0.00 63 1013.2
20260510104129 24 303 1.6 3.2 0.00 4.32 0.00 63 1013.2
20260510103929 24 303 1.6 3.2 0.00 4.32 0.00 63 1013.2
20260510103905 24 315 0.0 1.6 0.00 4.32 0.00 63 1013.2
20260510103728 24 317 0.0 1.6 0.00 4.32 0.00 63 1013.1
20260510103628 24 316 0.0 1.6 0.00 4.32 0.00 63 1013.1
20260510103529 24 316 0.0 1.6 0.00 4.32 0.00 63 1013.1
20260510103428 24 316 0.0 1.6 0.00 4.32 0.00 64 1013.1
20260510103328 24 315 0.0 1.6 0.00 4.32 0.00 64 1013.1
20260510103229 24 316 0.0 1.6 0.00 4.32 0.00 64 1013.1
20260510103129 24 316 0.0 1.6 0.00 4.32 0.00 64 1013.1
20260510103029 24 315 0.0 1.6 0.00 4.32 0.00 64 1013.1
20260510102928 24 316 0.0 1.6 0.00 4.32 0.00 64 1013.1
20260510102830 24 317 0.0 1.6 0.00 4.32 0.00 63 1013.1
20260510102729 24 317 0.0 1.6 0.00 4.32 0.00 63 1013.1
20260510102629 24 316 0.0 1.6 0.00 4.32 0.00 63 1013.1
20260510102529 24 316 0.0 1.6 0.00 4.32 0.00 63 1013.1
20260510102429 24 316 0.0 1.6 0.00 4.32 0.00 63 1013.1
20260510102329 24 316 0.0 1.6 0.00 4.32 0.00 63 1013.1
20260510102228 24 316 0.0 1.6 0.00 4.32 0.00 63 1013.1
20260510102129 24 316 0.0 0.0 0.00 4.32 0.00 63 1013.1
20260510102029 24 316 0.0 0.0 0.00 4.32 0.00 63 1013.1
20260510101929 24 316 0.0 0.0 0.00 4.32 0.00 63 1013.1
20260510101828 24 316 0.0 0.0 0.00 4.32 0.00 63 1013.1
20260510101727 24 317 0.0 0.0 0.00 4.32 0.00 63 1013.1
20260510101627 24 316 0.0 0.0 0.00 4.32 0.00 63 1013.1
20260510101527 24 316 0.0 0.0 0.00 4.32 0.00 63 1013.1
20260510101427 24 316 0.0 0.0 0.00 4.32 0.00 63 1013.1
20260510101327 24 316 0.0 0.0 0.00 4.32 0.00 63 1013.0
20260510101228 24 316 0.0 0.0 0.00 4.32 0.00 63 1013.0
20260510101127 24 316 0.0 0.0 0.00 4.32 0.00 63 1013.0
20260510101028 24 316 0.0 0.0 0.00 4.32 0.00 63 1013.0
20260510100927 24 316 0.0 0.0 0.00 4.32 0.00 63 1013.0
20260510100828 24 316 0.0 0.0 0.00 4.32 0.00 63 1012.9
20260510100727 24 316 0.0 0.0 0.00 4.32 0.00 63 1012.9
20260510100627 24 316 0.0 0.0 0.00 4.32 0.00 63 1012.9
20260510100527 24 316 0.0 0.0 0.00 4.32 0.00 63 1012.9
20260510100428 24 316 0.0 0.0 0.00 4.32 0.00 63 1012.9
20260510100327 24 316 0.0 0.0 0.00 4.32 0.00 63 1012.9
20260510100227 24 316 0.0 1.6 0.00 4.32 0.00 63 1012.9
20260510100127 24 316 0.0 1.6 0.00 4.32 0.00 63 1012.9
20260510100028 24 316 0.0 1.6 0.00 4.32 0.00 63 1012.9
20260510095927 24 316 0.0 1.6 0.00 4.32 0.00 63 1012.9
20260510095828 24 316 0.0 1.6 0.00 4.32 0.00 63 1012.8
20260510095727 24 316 0.0 1.6 0.00 4.32 0.00 63 1012.8
20260510095627 24 316 0.0 1.6 0.00 4.32 0.00 63 1012.9
20260510095527 24 316 0.0 1.6 0.00 4.32 0.00 63 1012.8
20260510095427 24 316 0.0 1.6 0.00 4.32 0.00 63 1012.8
20260510095350 24 316 0.0 1.6 0.00 4.32 0.00 63 1012.9
20260510095228 24 316 0.0 1.6 0.00 4.32 0.00 63 1012.8
20260510095127 24 316 0.0 1.6 0.00 4.32 0.00 63 1012.8
20260510095028 24 316 0.0 1.6 0.00 4.32 0.00 63 1012.8
20260510094927 24 316 0.0 1.6 0.00 4.32 0.00 63 1012.8
20260510094827 24 316 0.0 1.6 0.00 4.32 0.00 63 1012.8
20260510094727 24 316 0.0 1.6 0.00 4.32 0.00 63 1012.8
20260510094628 24 316 0.0 1.6 0.00 4.32 0.00 63 1012.8
20260510094527 24 316 0.0 1.6 0.00 4.32 0.00 63 1012.9
20260510094428 24 316 0.0 1.6 0.00 4.32 0.00 63 1012.9
20260510094327 24 316 0.0 1.6 0.00 4.32 0.00 63 1012.9
20260510094228 24 316 0.0 1.6 0.00 4.32 0.00 63 1012.9
20260510094127 24 316 0.0 1.6 0.00 4.32 0.00 63 1012.9
20260510094027 24 316 0.0 1.6 0.00 4.32 0.00 63 1012.9
20260510093928 24 316 0.0 1.6 0.00 4.32 0.00 63 1013.0
20260510093828 24 316 0.0 1.6 0.00 4.32 0.00 63 1013.0
20260510093727 24 316 0.0 1.6 0.00 4.32 0.00 63 1012.9
20260510093628 24 316 0.0 1.6 0.00 4.32 0.00 63 1012.9
20260510093528 24 316 0.0 1.6 0.00 4.32 0.00 63 1012.9
20260510093427 24 316 0.0 1.6 0.00 4.32 0.00 62 1012.9
20260510093328 24 316 0.0 1.6 0.00 4.32 0.00 62 1012.9
20260510093227 24 316 0.0 1.6 0.00 4.32 0.00 62 1012.9
20260510093128 24 316 0.0 0.0 0.00 4.32 0.00 62 1012.9
20260510093028 24 316 0.0 1.6 0.00 4.32 0.00 62 1012.9
20260510092927 24 316 0.0 1.6 0.00 4.32 0.00 62 1012.9
20260510092828 24 316 0.0 1.6 0.00 4.32 0.00 62 1012.9
20260510092727 24 316 0.0 1.6 0.00 4.32 0.00 62 1012.9
20260510092628 24 316 0.0 1.6 0.00 4.32 0.00 62 1012.9
20260510092527 24 316 0.0 1.6 0.00 4.32 0.00 62 1012.9
20260510092427 24 316 0.0 1.6 0.00 4.32 0.00 62 1012.9
20260510092328 24 316 0.0 1.6 0.00 4.32 0.00 62 1012.9
20260510092228 24 316 0.0 1.6 0.00 4.32 0.00 62 1012.8
20260510092128 24 316 0.0 1.6 0.00 4.32 0.00 62 1012.8
20260510092028 24 316 0.0 1.6 0.00 4.32 0.00 62 1012.8
20260510091932 24 316 0.0 1.6 0.00 4.32 0.00 62 1012.9
20260510091827 24 316 0.0 1.6 0.00 4.32 0.00 62 1012.8
20260510091729 24 316 0.0 1.6 0.00 4.32 0.00 62 1012.9
20260510091627 24 316 0.0 1.6 0.00 4.32 0.00 62 1012.8
20260510091528 24 316 0.0 1.6 0.00 4.32 0.00 62 1012.8
20260510091428 24 316 0.0 1.6 0.00 4.32 0.00 62 1012.8
20260510091328 24 316 0.0 1.6 0.00 4.32 0.00 62 1012.8
20260510091228 24 316 0.0 1.6 0.00 4.32 0.00 62 1012.9
20260510091127 24 316 0.0 1.6 0.00 4.32 0.00 62 1012.9
20260510091028 24 316 0.0 1.6 0.00 4.32 0.00 62 1012.9
20260510090916 24 316 0.0 1.6 0.00 4.32 0.00 62 1012.9
20260510090815 24 316 0.0 1.6 0.00 4.32 0.00 62 1012.9
20260510090714 24 316 0.0 1.6 0.00 4.32 0.00 62 1012.9
20260510090615 24 316 0.0 1.6 0.00 4.32 0.00 62 1012.9
20260510090515 24 316 0.0 1.6 0.00 4.32 0.00 62 1012.8
20260510090415 24 316 0.0 1.6 0.00 4.32 0.00 62 1012.8
20260510090315 24 316 0.0 1.6 0.00 4.32 0.00 63 1012.9
20260510090215 24 316 0.0 1.6 0.00 4.32 0.00 63 1012.8
20260510090115 24 316 0.0 1.6 0.00 4.32 0.00 64 1012.8
20260510090016 25 316 0.0 1.6 0.00 4.32 0.00 64 1012.8
20260510085915 24 316 0.0 1.6 0.00 4.32 0.00 64 1012.8
20260510085815 25 316 0.0 1.6 0.00 4.32 0.00 64 1012.8
20260510085715 25 316 0.0 1.6 0.00 4.32 0.00 64 1012.7
20260510085615 24 316 0.0 1.6 0.00 4.32 0.00 64 1012.7
20260510085515 24 316 0.0 1.6 0.00 4.32 0.00 64 1012.7
20260510085415 24 315 0.0 1.6 0.00 4.32 0.00 64 1012.7
20260510085315 24 315 0.0 1.6 0.00 4.32 0.00 64 1012.7
20260510085215 24 316 0.0 1.6 0.00 4.32 0.00 64 1012.7
20260510085115 24 316 0.0 1.6 0.00 4.32 0.00 64 1012.7
20260510085016 24 316 0.0 1.6 0.00 4.32 0.00 64 1012.8
20260510084915 24 316 0.0 1.6 0.00 4.32 0.00 64 1012.8
20260510084836 24 316 0.0 1.6 0.00 4.32 0.00 64 1012.8
20260510084715 24 316 1.6 1.6 0.00 4.32 0.00 64 1012.8
20260510084615 24 316 1.6 1.6 0.00 4.32 0.00 64 1012.8
20260510084516 24 316 1.6 1.6 0.00 4.32 0.00 64 1012.8
20260510084416 24 316 1.6 1.6 0.00 4.32 0.00 64 1012.7
20260510084337 24 316 1.6 1.6 0.00 4.32 0.00 64 1012.8
20260510084215 24 316 1.6 1.6 0.00 4.32 0.00 64 1012.8
20260510084115 24 316 1.6 1.6 0.00 4.32 0.00 64 1012.8
20260510084015 24 316 1.6 1.6 0.00 4.32 0.00 64 1012.7
20260510083915 24 316 1.6 1.6 0.00 4.32 0.00 64 1012.8
20260510083816 24 316 1.6 1.6 0.00 4.32 0.00 64 1012.8
20260510083715 24 316 1.6 1.6 0.00 4.32 0.00 64 1012.8
20260510083616 24 316 1.6 1.6 0.00 4.32 0.00 64 1012.8
20260510083516 24 316 0.0 1.6 0.00 4.32 0.00 64 1012.8
20260510083415 24 316 0.0 1.6 0.00 4.32 0.00 64 1012.8
20260510083316 24 316 0.0 1.6 0.00 4.32 0.00 64 1012.8
20260510083215 24 316 0.0 1.6 0.00 4.32 0.00 64 1012.7
20260510083116 24 316 0.0 1.6 0.00 4.32 0.00 64 1012.7
20260510083015 24 316 0.0 1.6 0.00 4.32 0.00 64 1012.8
20260510082916 24 316 0.0 1.6 0.00 4.32 0.00 64 1012.8
20260510082815 24 316 0.0 1.6 0.00 4.32 0.00 64 1012.8
20260510082714 24 316 0.0 1.6 0.00 4.32 0.00 64 1012.8
20260510082614 24 316 0.0 1.6 0.00 4.32 0.00 64 1012.8
20260510082515 24 316 0.0 1.6 0.00 4.32 0.00 64 1012.8
20260510082415 24 316 0.0 1.6 0.00 4.32 0.00 64 1012.8
20260510082336 24 316 0.0 1.6 0.00 4.32 0.00 64 1012.7
20260510082215 24 316 0.0 1.6 0.00 4.32 0.00 64 1012.8
20260510082115 25 316 0.0 1.6 0.00 4.32 0.00 64 1012.7
20260510082015 24 316 0.0 1.6 0.00 4.32 0.00 64 1012.7
20260510081915 24 316 0.0 1.6 0.00 4.32 0.00 64 1012.7
20260510081815 24 316 0.0 1.6 0.00 4.32 0.00 64 1012.8
20260510081716 24 316 0.0 1.6 0.00 4.32 0.00 64 1012.7
20260510081616 24 316 0.0 1.6 0.00 4.32 0.00 64 1012.7
20260510081515 24 316 0.0 1.6 0.00 4.32 0.00 64 1012.7
20260510081416 24 316 0.0 1.6 0.00 4.32 0.00 64 1012.7
20260510081315 24 316 0.0 1.6 0.00 4.32 0.00 64 1012.7
20260510081215 24 316 0.0 1.6 0.00 4.32 0.00 64 1012.7
20260510081115 24 316 0.0 1.6 0.00 4.32 0.00 64 1012.7
20260510081015 24 316 0.0 1.6 0.00 4.32 0.00 64 1012.7
20260510080915 24 316 0.0 1.6 0.00 4.32 0.00 64 1012.7
20260510080816 24 316 0.0 1.6 0.00 4.32 0.00 64 1012.6
20260510080715 24 316 0.0 1.6 0.00 4.32 0.00 64 1012.6
20260510080615 24 316 0.0 1.6 0.00 4.32 0.00 64 1012.6
20260510080515 25 316 0.0 1.6 0.00 4.32 0.00 64 1012.6
20260510080415 25 316 0.0 1.6 0.00 4.32 0.00 64 1012.5
20260510080315 24 316 0.0 1.6 0.00 4.32 0.00 64 1012.6
20260510080201 24 316 0.0 1.6 0.00 4.32 0.00 64 1012.6
20260510080047 24 316 0.0 1.6 0.00 4.32 0.00 64 1012.6
20260510075946 24 316 0.0 1.6 0.00 4.32 0.00 64 1012.5
20260510075846 24 316 0.0 1.6 0.00 4.32 0.00 64 1012.5
20260510075647 24 316 0.0 1.6 0.00 4.32 0.00 64 1012.5
20260510075547 24 316 0.0 1.6 0.00 4.32 0.00 64 1012.5
20260510075446 24 316 0.0 1.6 0.00 4.32 0.00 64 1012.5
20260510075345 24 316 0.0 1.6 0.00 4.32 0.00 64 1012.5
20260510075246 24 316 0.0 1.6 0.00 4.32 0.00 64 1012.5
20260510075146 24 316 1.6 1.6 0.00 4.32 0.00 64 1012.5
20260510075046 24 316 0.0 1.6 0.00 4.32 0.00 64 1012.5
20260510074947 24 316 1.6 1.6 0.00 4.32 0.00 64 1012.5
20260510074846 24 316 1.6 1.6 0.00 4.32 0.00 64 1012.5
20260510074646 24 316 1.6 1.6 0.00 4.32 0.00 64 1012.4
20260510074546 24 316 1.6 1.6 0.00 4.32 0.00 64 1012.4
20260510074446 24 316 0.0 1.6 0.00 4.32 0.00 64 1012.4
20260510074346 24 316 0.0 1.6 0.00 4.32 0.00 64 1012.4
20260510074146 24 316 0.0 1.6 0.00 4.32 0.00 64 1012.4
20260510074047 24 316 0.0 1.6 0.00 4.32 0.00 64 1012.3
20260510073946 24 316 0.0 1.6 0.00 4.32 0.00 64 1012.4
20260510073846 24 316 0.0 1.6 0.00 4.32 0.00 64 1012.3
20260510073646 24 316 0.0 1.6 0.00 4.32 0.00 64 1012.3
20260510073547 24 316 0.0 1.6 0.00 4.32 0.00 64 1012.3
20260510073447 24 316 0.0 1.6 0.00 4.32 0.00 64 1012.3
20260510073347 24 316 0.0 1.6 0.00 4.32 0.00 64 1012.3
20260510073146 24 316 0.0 1.6 0.00 4.32 0.00 64 1012.4
20260510073046 24 316 0.0 1.6 0.00 4.32 0.00 64 1012.3
20260510072947 24 316 0.0 1.6 0.00 4.32 0.00 64 1012.3
20260510072846 24 316 0.0 1.6 0.00 4.32 0.00 64 1012.4
20260510072646 24 316 0.0 1.6 0.00 4.32 0.00 64 1012.4
20260510072546 24 316 0.0 1.6 0.00 4.32 0.00 64 1012.4
20260510072447 24 316 0.0 1.6 0.00 4.32 0.00 64 1012.3
20260510072346 24 316 0.0 1.6 0.00 4.32 0.00 64 1012.3
20260510072146 24 316 0.0 1.6 0.00 4.32 0.00 64 1012.3
20260510072047 24 316 0.0 1.6 0.00 4.32 0.00 64 1012.3
20260510071947 24 316 0.0 1.6 0.00 4.32 0.00 64 1012.3
20260510071847 24 316 0.0 1.6 0.00 4.32 0.00 64 1012.3
20260510071647 24 316 0.0 1.6 0.00 4.32 0.00 64 1012.3
20260510071547 24 316 0.0 1.6 0.00 4.32 0.00 64 1012.3
20260510071447 24 316 0.0 1.6 0.00 4.32 0.00 64 1012.3
20260510071347 24 316 0.0 1.6 0.00 4.32 0.00 64 1012.3
20260510071147 24 316 0.0 1.6 0.00 4.32 0.00 64 1012.3
20260510071046 24 316 0.0 1.6 0.00 4.32 0.00 64 1012.3
20260510070947 24 316 0.0 1.6 0.00 4.32 0.00 64 1012.4
20260510070846 24 316 0.0 1.6 0.00 4.32 0.00 64 1012.3
20260510070836 24 316 0.0 1.6 0.00 4.32 0.00 64 1012.3
20260510070647 24 316 0.0 1.6 0.00 4.32 0.00 64 1012.3
20260510070546 24 316 0.0 1.6 0.00 4.32 0.00 64 1012.3
20260510070448 24 316 0.0 1.6 0.00 4.32 0.00 64 1012.3
20260510070347 24 316 0.0 1.6 0.00 4.32 0.00 64 1012.3
20260510070147 24 316 0.0 1.6 0.00 4.32 0.00 64 1012.3
20260510070046 24 316 0.0 1.6 0.00 4.32 0.00 64 1012.3
20260510065947 24 316 0.0 1.6 0.00 4.32 0.00 64 1012.3
20260510065847 24 316 0.0 1.6 0.00 4.32 0.00 64 1012.3
20260510065747 24 316 0.0 1.6 0.00 4.32 0.00 64 1012.3
20260510065647 24 316 0.0 1.6 0.00 4.32 0.00 64 1012.3
20260510065547 24 316 0.0 1.6 0.00 4.32 0.00 64 1012.2
20260510065447 24 316 0.0 1.6 0.00 4.32 0.00 64 1012.2
20260510065347 24 316 0.0 1.6 0.00 4.32 0.00 64 1012.3
20260510065247 24 316 0.0 1.6 0.00 4.32 0.00 64 1012.3
20260510065132 24 316 0.0 1.6 0.00 4.32 0.00 64 1012.3
20260510065032 24 316 0.0 1.6 0.00 4.32 0.00 64 1012.3
20260510064932 24 316 0.0 1.6 0.00 4.32 0.00 64 1012.3
20260510064832 24 316 0.0 1.6 0.00 4.32 0.00 64 1012.3
20260510064633 24 316 0.0 1.6 0.00 4.32 0.00 64 1012.3
20260510064532 24 316 0.0 1.6 0.00 4.32 0.00 64 1012.3
20260510064433 24 316 0.0 1.6 0.00 4.32 0.00 64 1012.3
20260510064332 24 316 0.0 1.6 0.00 4.32 0.00 64 1012.2
20260510064133 24 316 0.0 1.6 0.00 4.32 0.00 64 1012.3
20260510064032 24 316 0.0 1.6 0.00 4.32 0.00 64 1012.2
20260510063931 24 316 0.0 1.6 0.00 4.32 0.00 64 1012.3
20260510063832 24 316 0.0 1.6 0.00 4.32 0.00 64 1012.2
20260510063633 24 316 0.0 1.6 0.00 4.32 0.00 64 1012.2
20260510063532 24 316 0.0 1.6 0.00 4.32 0.00 64 1012.2
20260510063432 24 316 0.0 1.6 0.00 4.32 0.00 64 1012.2
20260510063332 24 316 0.0 1.6 0.00 4.32 0.00 64 1012.2
20260510063323 24 316 1.6 1.6 0.00 4.32 0.00 64 1012.2
20260510063132 24 316 1.6 1.6 0.00 4.32 0.00 64 1012.2
20260510063033 24 316 1.6 1.6 0.00 4.32 0.00 64 1012.2
20260510062932 24 316 1.6 1.6 0.00 4.32 0.00 64 1012.2
20260510062832 24 316 0.0 1.6 0.00 4.32 0.00 64 1012.2
20260510062632 24 316 0.0 1.6 0.00 4.32 0.00 64 1012.2
20260510062533 24 316 0.0 1.6 0.00 4.32 0.00 64 1012.2
20260510062432 24 316 1.6 1.6 0.00 4.32 0.00 64 1012.2
20260510062333 24 316 1.6 1.6 0.00 4.32 0.00 64 1012.3
20260510062323 24 316 1.6 1.6 0.00 4.32 0.00 64 1012.3
20260510062132 24 316 1.6 1.6 0.00 4.32 0.00 64 1012.3
20260510062033 24 316 1.6 1.6 0.00 4.32 0.00 64 1012.3
20260510061932 24 316 1.6 1.6 0.00 4.32 0.00 64 1012.3
20260510061833 24 316 1.6 1.6 0.00 4.32 0.00 64 1012.3
20260510061732 24 316 1.6 1.6 0.00 4.32 0.00 64 1012.3
20260510061633 24 316 1.6 1.6 0.00 4.32 0.00 64 1012.4
20260510061532 24 316 1.6 1.6 0.00 4.32 0.00 64 1012.4
20260510061433 24 316 1.6 1.6 0.00 4.32 0.00 64 1012.4
20260510061333 24 316 1.6 1.6 0.00 4.32 0.00 64 1012.5
20260510061232 24 316 1.6 1.6 0.00 4.32 0.00 64 1012.4
20260510061134 24 316 1.6 1.6 0.00 4.32 0.00 64 1012.5
20260510061033 24 316 1.6 1.6 0.00 4.32 0.00 64 1012.5
20260510060932 24 316 1.6 1.6 0.00 4.32 0.00 64 1012.5
20260510060832 24 316 1.6 1.6 0.00 4.32 0.00 64 1012.6
20260510060633 24 316 1.6 1.6 0.00 4.32 0.00 64 1012.6
20260510060532 24 316 1.6 1.6 0.00 4.32 0.00 64 1012.6
20260510060433 24 316 1.6 1.6 0.00 4.32 0.00 64 1012.6
20260510060334 24 316 1.6 1.6 0.00 4.32 0.00 64 1012.7
20260510060232 24 316 1.6 1.6 0.00 4.32 0.00 64 1012.6
20260510060133 24 316 1.6 1.6 0.00 4.32 0.00 64 1012.7
20260510060032 24 316 1.6 1.6 0.00 4.32 0.00 64 1012.7
20260510055933 24 316 1.6 1.6 0.00 4.32 0.00 64 1012.6
20260510055832 24 316 1.6 1.6 0.00 4.32 0.00 64 1012.7
20260510055633 24 316 1.6 1.6 0.00 4.32 0.00 63 1012.7
20260510055533 24 316 1.6 1.6 0.00 4.32 0.00 64 1012.7
20260510055432 24 316 1.6 1.6 0.00 4.32 0.00 64 1012.7
20260510055333 24 316 1.6 1.6 0.00 4.32 0.00 64 1012.7
20260510055133 24 316 1.6 1.6 0.00 4.32 0.00 64 1012.7
20260510055033 24 316 1.6 1.6 0.00 4.32 0.00 64 1012.7
20260510054932 24 316 1.6 1.6 0.00 4.32 0.00 63 1012.7
20260510054831 24 317 1.6 1.6 0.00 4.32 0.00 64 1012.7
20260510054823 24 317 1.6 1.6 0.00 4.32 0.00 64 1012.7
20260510054631 24 316 1.6 1.6 0.00 4.32 0.00 64 1012.8
20260510054537 24 316 1.6 1.6 0.00 4.32 0.00 63 1012.7
20260510054431 24 316 1.6 1.6 0.00 4.32 0.00 63 1012.7
20260510054331 24 316 1.6 1.6 0.00 4.32 0.00 63 1012.8
20260510054231 24 316 0.0 1.6 0.00 4.32 0.00 63 1012.8
20260510054131 24 316 0.0 1.6 0.00 4.32 0.00 64 1012.8
20260510054031 24 316 0.0 1.6 0.00 4.32 0.00 64 1012.8
20260510053931 24 316 0.0 1.6 0.00 4.32 0.00 63 1012.8
20260510053831 24 316 0.0 1.6 0.00 4.32 0.00 63 1012.8
20260510053730 24 316 1.6 1.6 0.00 4.32 0.00 64 1012.8
20260510053631 24 316 1.6 1.6 0.00 4.32 0.00 64 1012.7
20260510053531 24 316 1.6 1.6 0.00 4.32 0.00 63 1012.7
20260510053431 24 316 1.6 1.6 0.00 4.32 0.00 63 1012.7
20260510053331 24 316 1.6 1.6 0.00 4.32 0.00 63 1012.7
20260510053230 24 316 1.6 1.6 0.00 4.32 0.00 64 1012.7
20260510053131 24 316 1.6 1.6 0.00 4.32 0.00 64 1012.7
20260510053038 24 316 1.6 1.6 0.00 4.32 0.00 63 1012.7
20260510053031 24 316 1.6 1.6 0.00 4.32 0.00 63 1012.6
20260510052831 24 316 1.6 1.6 0.00 4.32 0.00 63 1012.6
20260510052810 24 316 1.6 1.6 0.00 4.32 0.00 63 1012.6
20260510052631 24 316 1.6 1.6 0.00 4.32 0.00 63 1012.6
20260510052531 24 316 1.6 1.6 0.00 4.32 0.00 64 1012.5
20260510052432 24 316 1.6 1.6 0.00 4.32 0.00 63 1012.5
20260510052332 24 316 1.6 1.6 0.00 4.32 0.00 64 1012.4
20260510052231 24 316 1.6 1.6 0.00 4.32 0.00 63 1012.4
20260510052132 24 316 1.6 1.6 0.00 4.32 0.00 63 1012.4
20260510052031 24 316 1.6 1.6 0.00 4.32 0.00 63 1012.4
20260510051932 24 316 1.6 1.6 0.00 4.32 0.00 63 1012.4
20260510051831 24 316 1.6 1.6 0.00 4.32 0.00 63 1012.4
20260510051731 24 316 1.6 1.6 0.00 4.32 0.00 64 1012.3
20260510051632 24 316 1.6 1.6 0.00 4.32 0.00 63 1012.3
20260510051532 24 316 1.6 1.6 0.00 4.32 0.00 63 1012.3
20260510051431 24 316 1.6 1.6 0.00 4.32 0.00 63 1012.4
20260510051331 24 316 1.6 1.6 0.00 4.32 0.00 63 1012.4
20260510051232 24 316 1.6 1.6 0.00 4.32 0.00 63 1012.3
20260510051131 24 316 1.6 1.6 0.00 4.32 0.00 63 1012.3
20260510051032 24 316 1.6 1.6 0.00 4.32 0.00 63 1012.3
20260510050931 24 316 1.6 3.2 0.00 4.32 0.00 63 1012.2
20260510050832 24 316 1.6 3.2 0.00 4.32 0.00 63 1012.2
20260510050731 24 316 1.6 3.2 0.00 4.32 0.00 63 1012.2
20260510050631 24 316 1.6 3.2 0.00 4.32 0.00 63 1012.3
20260510050532 24 316 1.6 3.2 0.00 4.32 0.00 63 1012.2
20260510050431 24 316 1.6 3.2 0.00 4.32 0.00 63 1012.2
20260510050332 24 316 1.6 3.2 0.00 4.32 0.00 63 1012.2
20260510050233 24 316 1.6 3.2 0.00 4.32 0.00 63 1012.2
20260510050131 24 316 1.6 3.2 0.00 4.32 0.00 63 1012.2
20260510050032 24 316 1.6 3.2 0.00 4.32 0.00 63 1012.2
20260510045932 24 316 1.6 3.2 0.00 4.32 4.32 63 1012.1
20260510045832 24 316 1.6 1.6 0.00 4.32 4.32 63 1012.1
20260510045732 24 316 1.6 3.2 0.00 4.32 4.32 63 1012.1
20260510045631 24 316 1.6 3.2 0.00 4.32 4.32 63 1012.1
20260510045532 24 316 1.6 3.2 0.00 4.32 4.32 63 1012.1
20260510045432 24 316 1.6 3.2 0.00 4.32 4.32 63 1012.0
20260510045320 24 315 1.6 3.2 0.00 4.32 4.32 63 1011.9
20260510045221 24 314 1.6 3.2 0.00 4.32 4.32 63 1011.8
20260510045120 24 322 1.6 3.2 0.00 4.32 4.32 63 1011.8
20260510045021 24 315 1.6 3.2 0.00 4.32 4.32 63 1011.8
20260510044920 24 315 1.6 3.2 0.00 4.32 4.32 63 1011.8
20260510044821 24 315 1.6 3.2 0.00 4.32 4.32 63 1011.8
20260510044810 24 318 1.6 3.2 0.00 4.32 4.32 63 1011.8
20260510044620 24 318 1.6 3.2 0.00 4.32 4.32 63 1011.8
20260510044521 24 300 1.6 3.2 0.00 4.32 4.32 63 1011.8
20260510044420 24 309 1.6 3.2 0.00 4.32 4.32 63 1011.7
20260510044320 24 316 1.6 3.2 0.00 4.32 4.32 63 1011.7
20260510044221 24 315 1.6 3.2 0.00 4.32 4.32 63 1011.7
20260510044120 24 308 1.6 3.2 0.00 4.32 4.32 63 1011.7
20260510044021 24 314 3.2 3.2 0.00 4.32 4.32 63 1011.7
20260510043920 24 326 1.6 3.2 0.00 4.32 4.32 63 1011.7
20260510043821 24 310 1.6 3.2 0.00 4.32 4.32 63 1011.6
20260510043719 24 335 1.6 3.2 0.00 4.32 4.32 63 1011.6
20260510043619 24 323 1.6 3.2 0.00 4.32 4.32 63 1011.6
20260510043519 24 313 1.6 3.2 0.00 4.32 4.32 63 1011.6
20260510043419 24 317 1.6 3.2 0.00 4.32 4.32 63 1011.7
20260510043319 24 329 1.6 3.2 0.00 4.32 4.32 63 1011.7
20260510043218 24 319 1.6 3.2 0.00 4.32 4.32 63 1011.6
20260510043119 24 313 1.6 3.2 0.00 4.32 4.32 63 1011.7
20260510043019 24 321 1.6 3.2 0.00 4.32 4.32 63 1011.7
20260510042919 24 316 1.6 3.2 0.00 4.32 4.32 63 1011.7
20260510042819 24 323 1.6 3.2 0.00 4.32 4.32 63 1011.7
20260510042755 24 309 1.6 3.2 0.00 4.32 4.32 63 1011.7
20260510042619 24 317 1.6 3.2 0.00 4.32 4.32 63 1011.7
20260510042519 24 314 1.6 3.2 0.00 4.32 4.32 63 1011.8
20260510042419 24 308 1.6 3.2 0.00 4.32 4.32 63 1011.8
20260510042319 24 318 1.6 3.2 0.00 4.32 4.32 63 1011.8
20260510042219 24 309 1.6 3.2 0.00 4.32 4.32 63 1011.8
20260510042119 24 315 1.6 3.2 0.00 4.32 4.32 63 1011.8
20260510042019 24 315 1.6 3.2 0.00 4.32 4.32 63 1011.8
20260510041919 24 310 1.6 3.2 0.00 4.32 4.32 63 1011.8
20260510041819 24 320 1.6 3.2 0.00 4.32 4.32 63 1011.8
20260510041755 24 319 1.6 3.2 0.00 4.32 4.32 63 1011.9
20260510041620 24 307 1.6 3.2 0.00 4.32 4.32 63 1011.9
20260510041519 24 318 1.6 3.2 0.00 4.32 4.32 63 1011.9
20260510041420 24 316 1.6 3.2 0.00 4.32 4.32 63 1011.9
20260510041320 24 315 1.6 3.2 0.00 4.32 4.32 63 1012.0
20260510041219 24 310 1.6 3.2 0.00 4.32 4.32 63 1012.0
20260510041120 24 314 1.6 3.2 0.00 4.32 4.32 63 1012.0
20260510041019 24 317 1.6 3.2 0.00 4.32 4.32 63 1012.1
20260510040919 24 313 1.6 3.2 0.00 4.32 4.32 63 1012.1
20260510040819 24 316 1.6 3.2 0.00 4.32 4.32 63 1012.1
20260510040720 24 316 1.6 3.2 0.00 4.32 4.32 63 1012.1
20260510040619 24 316 1.6 3.2 0.00 4.32 4.32 63 1012.1
20260510040519 24 316 1.6 3.2 0.00 4.32 4.32 63 1012.2
20260510040419 24 316 1.6 3.2 0.00 4.32 4.32 63 1012.2
20260510040320 24 316 1.6 3.2 0.00 4.32 4.32 63 1012.2
20260510040256 24 316 1.6 3.2 0.00 4.32 4.32 63 1012.3
20260510040119 24 316 1.6 3.2 0.00 4.32 4.32 63 1012.2
20260510040020 24 316 1.6 3.2 0.00 4.32 4.32 63 1012.3
20260510035919 24 316 1.6 3.2 0.00 4.32 4.32 63 1012.3
20260510035819 24 316 1.6 3.2 0.00 4.32 4.32 63 1012.4
20260510035719 24 315 1.6 3.2 0.00 4.32 4.32 63 1012.4
20260510035620 24 315 1.6 3.2 0.00 4.32 4.32 63 1012.4
20260510035519 24 320 1.6 3.2 0.00 4.32 4.32 63 1012.4
20260510035419 24 330 1.6 3.2 0.00 4.32 4.32 63 1012.4
20260510035320 24 316 1.6 3.2 0.00 4.32 4.32 63 1012.5
20260510035219 24 315 3.2 3.2 0.00 4.32 4.32 63 1012.5
20260510035121 24 313 3.2 3.2 0.00 4.32 4.32 63 1012.5
20260510035019 24 321 3.2 3.2 0.00 4.32 4.32 63 1012.5
20260510034920 24 313 3.2 3.2 0.00 4.32 4.32 63 1012.5
20260510034819 24 315 3.2 3.2 0.00 4.32 4.32 63 1012.5
20260510034720 24 314 3.2 3.2 0.00 4.32 4.32 63 1012.5
20260510034620 24 306 3.2 3.2 0.00 4.32 4.32 63 1012.5
20260510034520 24 136 3.2 3.2 0.00 4.32 4.32 63 1012.5
20260510034419 24 315 3.2 3.2 0.00 4.32 4.32 62 1012.5
20260510034319 24 317 1.6 3.2 0.00 4.32 4.32 62 1012.5
20260510034220 24 316 1.6 3.2 0.00 4.32 4.32 62 1012.5
20260510034120 24 137 1.6 3.2 0.00 4.32 4.32 62 1012.5
20260510034020 24 315 1.6 4.8 0.00 4.32 4.32 62 1012.5
20260510033920 24 315 1.6 4.8 0.00 4.32 4.32 62 1012.5
20260510033820 24 137 1.6 4.8 0.00 4.32 4.32 62 1012.4
20260510033755 24 316 1.6 4.8 0.00 4.32 4.32 62 1012.5
20260510033619 24 332 1.6 4.8 0.00 4.32 4.32 62 1012.4
20260510033520 24 315 1.6 4.8 0.00 4.32 4.32 62 1012.4
20260510033421 24 315 1.6 4.8 0.00 4.32 4.32 62 1012.4
20260510033319 24 316 1.6 4.8 0.00 4.32 4.32 62 1012.4
20260510033220 24 316 1.6 4.8 0.00 4.32 4.32 62 1012.4
20260510033119 24 330 1.6 4.8 0.00 4.32 4.32 62 1012.4
20260510033020 24 310 1.6 4.8 0.00 4.32 4.32 62 1012.5
20260510032905 24 316 1.6 1.6 0.00 4.32 4.32 62 1012.5
20260510032805 24 316 1.6 1.6 0.00 4.32 4.32 62 1012.5
20260510032741 24 316 1.6 1.6 0.00 4.32 4.32 62 1012.6
20260510032605 24 316 1.6 1.6 0.00 4.32 4.32 62 1012.7
20260510032505 24 316 1.6 1.6 0.00 4.32 4.32 62 1012.7
20260510032405 24 316 1.6 1.6 0.00 4.32 4.32 62 1012.8
20260510032306 24 316 1.6 1.6 0.00 4.32 4.32 62 1012.8
20260510032204 24 316 1.6 1.6 0.00 4.32 4.32 61 1012.8
20260510032105 24 316 1.6 1.6 0.00 4.32 4.32 61 1012.9
20260510032005 24 316 1.6 1.6 0.00 4.32 4.32 61 1012.9
20260510031905 24 316 1.6 1.6 0.00 4.32 4.32 61 1012.9
20260510031805 24 316 1.6 1.6 0.00 4.32 4.32 61 1012.9
20260510031706 24 316 1.6 3.2 0.00 4.32 4.32 61 1012.9
20260510031604 24 316 1.6 3.2 0.00 4.32 4.32 61 1013.0
20260510031505 24 316 1.6 3.2 0.00 4.32 4.32 61 1013.0
20260510031405 24 315 1.6 3.2 0.00 4.32 4.32 61 1013.1
20260510031305 24 319 1.6 3.2 0.00 4.32 4.32 61 1013.1
20260510031206 24 315 1.6 3.2 0.00 4.32 4.32 61 1013.1
20260510031105 24 319 1.6 3.2 0.00 4.32 4.32 61 1013.2
20260510031005 24 316 1.6 3.2 0.00 4.32 4.32 61 1013.2
20260510030905 24 316 1.6 3.2 0.00 4.32 4.32 61 1013.3
20260510030806 24 314 1.6 3.2 0.00 4.32 4.32 60 1013.4
20260510030705 24 137 1.6 3.2 0.00 4.32 4.32 61 1013.4
20260510030605 24 315 1.6 3.2 0.00 4.32 4.32 60 1013.4
20260510030505 24 316 1.6 3.2 0.00 4.32 4.32 60 1013.4
20260510030405 24 316 1.6 3.2 0.00 4.32 4.32 60 1013.4
20260510030305 24 314 1.6 3.2 0.00 4.32 4.32 60 1013.5
20260510030241 24 300 1.6 3.2 0.00 4.32 4.32 60 1013.5
20260510030105 24 315 1.6 3.2 0.00 4.32 4.32 60 1013.5
20260510030006 24 136 1.6 3.2 0.00 4.32 4.32 60 1013.5
20260510025906 24 315 1.6 1.6 0.00 4.32 4.32 60 1013.5
20260510025805 24 301 1.6 1.6 0.00 4.32 4.32 60 1013.5
20260510025705 25 296 1.6 1.6 0.00 4.32 4.32 60 1013.4
20260510025605 25 316 1.6 1.6 0.00 4.32 4.32 61 1013.4
20260510025505 24 316 1.6 1.6 0.00 4.32 4.32 61 1013.4
20260510025406 25 316 1.6 1.6 0.00 4.32 4.32 62 1013.4
20260510025306 25 316 1.6 1.6 0.00 4.32 4.32 62 1013.4
20260510025205 25 316 1.6 1.6 0.00 4.32 4.32 63 1013.4
20260510025106 25 316 1.6 1.6 0.00 4.32 4.32 63 1013.5
20260510025006 25 316 1.6 1.6 0.00 4.32 4.32 63 1013.5
20260510024905 25 316 1.6 1.6 0.00 4.32 4.32 64 1013.5
20260510024806 24 316 1.6 1.6 0.00 4.32 4.32 64 1013.4
20260510024705 25 315 1.6 3.2 0.00 4.32 4.32 64 1013.4
20260510024605 25 314 1.6 3.2 0.00 4.32 4.32 64 1013.3
20260510024506 24 315 1.6 3.2 0.00 4.32 4.32 64 1013.3
20260510024405 25 315 1.6 3.2 0.00 4.32 4.32 64 1013.2
20260510024306 25 311 1.6 3.2 0.00 4.32 4.32 64 1013.3
20260510024206 25 314 1.6 3.2 0.00 4.32 4.32 64 1013.3
20260510024105 25 305 1.6 3.2 0.00 4.32 4.32 64 1013.4
20260510024006 25 316 1.6 3.2 0.00 4.32 4.32 64 1013.4
20260510023905 24 316 1.6 3.2 0.00 4.32 4.32 64 1013.4
20260510023806 25 315 1.6 3.2 0.00 4.32 4.32 64 1013.4
20260510023705 25 316 1.6 3.2 0.00 4.32 4.32 64 1013.4
20260510023606 25 317 1.6 1.6 0.00 4.32 4.32 64 1013.4
20260510023505 25 312 1.6 1.6 0.00 4.32 4.32 64 1013.3
20260510023406 25 312 1.6 1.6 0.00 4.32 4.32 64 1013.3
20260510023306 25 136 1.6 1.6 0.00 4.32 4.32 64 1013.3
20260510023241 24 316 1.6 1.6 0.00 4.32 4.32 64 1013.3
20260510023106 25 316 1.6 1.6 0.00 4.32 4.32 64 1013.3
20260510023006 25 316 1.6 3.2 0.00 4.32 4.32 64 1013.3
20260510022906 25 315 1.6 3.2 0.00 4.32 4.32 64 1013.3
20260510022806 24 315 1.6 3.2 0.00 4.32 4.32 64 1013.3
20260510022706 25 310 1.6 3.2 0.00 4.32 4.32 64 1013.3
20260510022608 25 317 1.6 3.2 0.00 4.32 4.32 64 1013.3
20260510022505 25 329 1.6 3.2 0.00 4.32 4.32 64 1013.2
20260510022406 25 318 1.6 3.2 0.00 4.32 4.32 64 1013.2
20260510022307 24 309 1.6 3.2 0.00 4.32 4.32 64 1013.1
20260510022153 25 314 1.6 3.2 0.00 4.32 4.32 64 1013.2
20260510022037 25 316 1.6 3.2 0.00 4.32 4.32 64 1013.2
20260510021938 25 135 1.6 3.2 0.00 4.32 4.32 64 1013.1
20260510021837 25 321 1.6 3.2 0.00 4.32 4.32 64 1013.2
20260510021738 25 315 1.6 3.2 0.00 4.32 4.32 64 1013.2
20260510021640 25 315 1.6 3.2 0.00 4.32 4.32 64 1013.2
20260510021538 25 316 1.6 3.2 0.00 4.32 4.32 64 1013.3
20260510021437 25 315 1.6 3.2 0.00 4.32 4.32 64 1013.2
20260510021338 25 313 1.6 3.2 0.00 4.32 4.32 64 1013.3
20260510021238 25 137 1.6 3.2 0.00 4.32 4.32 64 1013.2
20260510021139 25 137 1.6 3.2 0.00 4.32 4.32 64 1013.2
20260510021038 25 316 1.6 1.6 0.00 4.32 4.32 64 1013.1
20260510020938 25 307 1.6 1.6 0.00 4.32 4.32 64 1013.1
20260510020837 25 315 1.6 1.6 0.00 4.32 4.32 64 1013.1
20260510020738 25 315 1.6 1.6 0.00 4.32 4.32 64 1013.0
20260510020641 25 319 1.6 1.6 0.00 4.32 4.32 64 1013.0
20260510020538 25 315 1.6 1.6 0.00 4.32 4.32 64 1013.0
20260510020437 25 315 1.6 1.6 0.00 4.32 4.32 64 1013.0
20260510020339 25 137 1.6 1.6 0.00 4.32 4.32 64 1013.0
20260510020248 25 314 1.6 1.6 0.00 4.32 4.32 64 1013.1
20260510020241 25 316 1.6 3.2 0.00 4.32 4.32 64 1013.0
20260510020038 25 316 1.6 3.2 0.00 4.32 4.32 64 1013.0
20260510015938 25 309 1.6 3.2 0.00 4.32 4.32 64 1013.0
20260510015838 25 315 1.6 3.2 0.00 4.32 4.32 64 1013.0
20260510015737 25 312 1.6 3.2 0.00 4.32 4.32 64 1013.0
20260510015640 25 137 1.6 3.2 0.00 4.32 4.32 64 1012.9
20260510015538 24 323 1.6 3.2 0.00 4.32 4.32 64 1013.0
20260510015438 25 311 1.6 3.2 0.00 4.32 4.32 64 1012.9
20260510015337 24 315 1.6 3.2 0.00 4.32 4.32 64 1013.0
20260510015238 25 315 1.6 4.8 0.00 4.32 4.32 64 1013.0
20260510015038 24 303 1.6 4.8 0.00 4.32 4.32 64 1013.1
20260510014938 25 316 1.6 4.8 0.00 4.32 4.32 64 1013.0
20260510014838 25 316 1.6 4.8 0.00 4.32 4.32 64 1013.0
20260510014738 25 302 1.6 4.8 0.00 4.32 4.32 64 1013.0
20260510014641 25 317 1.6 4.8 0.00 4.32 4.32 64 1012.9
20260510014538 25 315 1.6 4.8 0.00 4.32 4.32 64 1012.9
20260510014438 24 308 1.6 4.8 0.00 4.32 4.32 64 1012.8
20260510014338 25 316 1.6 4.8 0.00 4.32 4.32 64 1012.9
20260510014238 25 136 1.6 4.8 0.00 4.32 4.32 64 1012.9
20260510014141 25 316 1.6 1.6 0.00 4.32 4.32 64 1012.8
20260510014039 25 318 1.6 1.6 0.00 4.32 4.32 64 1012.9
20260510013938 24 315 1.6 1.6 0.00 4.32 4.32 64 1012.9
20260510013839 25 137 1.6 1.6 0.00 4.32 4.32 64 1012.9
20260510013738 25 316 1.6 1.6 0.00 4.32 4.32 64 1012.9
20260510013538 25 316 1.6 1.6 0.00 4.32 4.32 64 1012.9
20260510013438 25 316 1.6 1.6 0.00 4.32 4.32 64 1012.8
20260510013338 25 316 1.6 1.6 0.00 4.32 4.32 64 1012.8
20260510013238 25 316 1.6 1.6 0.00 4.32 4.32 64 1012.8
20260510013038 25 316 1.6 1.6 0.00 4.32 4.32 64 1012.8
20260510012939 25 316 1.6 1.6 0.00 4.32 4.32 64 1012.8
20260510012838 25 316 1.6 1.6 0.00 4.32 4.32 64 1012.8
20260510012739 25 316 1.6 1.6 0.00 4.32 4.32 64 1012.8
20260510012538 24 316 1.6 1.6 0.00 4.32 4.32 64 1012.8
20260510012438 25 316 1.6 1.6 0.00 4.32 4.32 64 1012.8
20260510012338 24 316 1.6 1.6 0.00 4.32 4.32 64 1012.8
20260510012238 25 316 1.6 1.6 0.00 4.32 4.32 64 1012.8
20260510012038 25 316 1.6 1.6 0.00 4.32 4.32 64 1012.7
20260510011939 25 316 1.6 1.6 0.00 4.32 4.32 64 1012.7
20260510011837 25 316 1.6 1.6 0.00 4.32 4.32 64 1012.6
20260510011736 25 317 1.6 1.6 0.00 4.32 4.32 64 1012.6
20260510011636 25 316 1.6 1.6 0.00 4.32 4.32 64 1012.6
20260510011537 25 316 1.6 1.6 0.00 4.32 4.32 64 1012.5
20260510011437 24 316 1.6 3.2 0.00 4.32 4.32 64 1012.5
20260510011337 25 316 1.6 3.2 0.00 4.32 4.32 64 1012.4
20260510011236 25 316 1.6 3.2 0.00 4.32 4.32 64 1012.4
20260510011036 25 316 1.6 3.2 0.00 4.32 4.32 64 1012.3
20260510010937 25 316 1.6 3.2 0.00 4.32 4.32 64 1012.4
20260510010837 25 316 1.6 3.2 0.00 4.32 4.32 64 1012.4
20260510010737 25 316 1.6 3.2 0.00 4.32 4.32 64 1012.4
20260510010536 25 317 1.6 3.2 0.00 4.32 4.32 64 1012.4
20260510010449 25 316 1.6 3.2 0.00 4.32 4.32 64 1012.4
20260510010336 25 316 1.6 3.2 0.00 4.32 4.32 64 1012.4
20260510010236 25 318 3.2 3.2 0.00 4.32 4.32 64 1012.3
20260510010228 25 304 3.2 4.8 0.00 4.32 4.32 64 1012.3
20260510010037 25 309 1.6 4.8 0.00 4.32 4.32 64 1012.3
20260510005936 25 318 1.6 4.8 0.00 4.32 4.32 64 1012.3
20260510005837 25 312 1.6 4.8 0.00 4.32 4.32 64 1012.3
20260510005736 25 309 3.2 4.8 0.00 4.32 4.32 64 1012.4
20260510005536 25 319 3.2 4.8 0.00 4.32 4.32 64 1012.3
20260510005437 25 316 3.2 4.8 0.00 4.32 4.32 64 1012.3
20260510005336 25 312 3.2 4.8 0.00 4.32 4.32 64 1012.3
20260510005237 25 132 3.2 4.8 0.00 4.32 4.32 64 1012.3
20260510005136 25 315 3.2 3.2 0.00 4.32 4.32 64 1012.2
20260510005037 24 309 3.2 3.2 0.00 4.32 4.32 64 1012.2
20260510004937 25 317 3.2 4.8 0.00 4.32 4.32 64 1012.2
20260510004837 25 331 3.2 4.8 0.00 4.32 4.32 64 1012.1
20260510004737 25 316 3.2 4.8 0.00 4.32 4.32 64 1012.1
20260510004637 25 313 3.2 4.8 0.00 4.32 4.32 64 1012.1
20260510004537 24 135 3.2 4.8 0.00 4.32 4.32 64 1012.0
20260510004437 25 134 3.2 4.8 0.00 4.32 4.32 64 1012.1
20260510004337 25 315 3.2 4.8 0.00 4.32 4.32 64 1012.1
20260510004237 25 131 3.2 4.8 0.00 4.32 4.32 64 1012.1
20260510004037 25 315 3.2 4.8 0.00 4.32 4.32 64 1012.1
20260510003937 25 313 3.2 4.8 0.00 4.32 4.32 64 1012.1
20260510003838 24 324 3.2 4.8 0.00 4.32 4.32 64 1012.1
20260510003737 25 314 3.2 4.8 0.00 4.32 4.32 64 1012.1
20260510003537 24 286 3.2 4.8 0.00 4.32 4.32 64 1012.1
20260510003438 24 83 3.2 4.8 0.00 4.32 4.32 64 1012.1
20260510003337 24 43 3.2 4.8 0.00 4.32 4.32 64 1012.1
20260510003237 25 319 3.2 4.8 0.00 4.32 4.32 64 1012.0
20260510003229 24 18 3.2 4.8 0.00 4.32 4.32 64 1012.0
20260510003037 24 317 3.2 4.8 0.00 4.32 4.32 64 1012.0
20260510002937 25 347 3.2 4.8 0.00 4.32 4.32 64 1011.9
20260510002837 24 136 3.2 3.2 0.00 4.32 4.32 64 1012.0
20260510002723 25 300 3.2 3.2 0.00 4.32 4.32 64 1012.0
20260510002625 25 314 3.2 3.2 0.00 4.32 4.32 64 1012.0
20260510002526 25 315 3.2 3.2 0.00 4.32 4.32 64 1011.9
20260510002426 24 317 3.2 4.8 0.00 4.32 4.32 64 1011.9
20260510002326 24 311 3.2 6.4 0.00 4.32 4.32 64 1011.8
20260510002225 25 324 3.2 6.4 0.00 4.32 4.32 64 1011.8
20260510002025 24 316 3.2 6.4 0.00 4.32 4.32 64 1011.7
20260510001925 25 315 3.2 6.4 0.00 4.32 4.32 64 1011.7
20260510001826 24 317 3.2 6.4 0.00 4.32 4.32 64 1011.7
20260510001727 24 318 3.2 6.4 0.00 4.32 4.32 64 1011.7
20260510001628 25 316 3.2 6.4 0.00 4.32 4.32 64 1011.7
20260510001527 24 324 3.2 6.4 0.00 4.32 4.32 64 1011.7
20260510001426 25 303 3.2 6.4 0.00 4.32 4.32 64 1011.7
20260510001326 25 335 3.2 6.4 0.00 4.32 4.32 64 1011.6
20260510001226 24 318 3.2 6.4 0.00 4.32 4.32 64 1011.6
20260510001026 24 317 3.2 6.4 0.00 4.32 4.32 64 1011.7
20260510000926 25 138 3.2 6.4 0.00 4.32 4.32 64 1011.7
20260510000826 24 320 1.6 6.4 0.00 4.32 4.32 64 1011.7
20260510000724 24 134 1.6 6.4 0.00 4.32 4.32 64 1011.8
20260510000506 24 309 1.6 3.2 0.00 4.32 4.32 64 1011.8
20260510000411 24 316 1.6 3.2 0.00 4.32 4.32 64 1011.8
20260510000311 24 316 1.6 3.2 0.00 4.32 4.32 64 1011.8
20260510000211 25 316 1.6 3.2 0.00 4.32 4.32 64 1011.9
20260510000009 24 316 1.6 3.2 0.00 4.32 4.32 64 1011.9
20260509235910 25 316 1.6 3.2 0.00 4.32 4.32 64 1011.9
20260509235809 24 315 1.6 3.2 0.00 4.32 4.32 64 1011.8
20260509235712 24 315 1.6 3.2 0.00 4.32 4.32 64 1011.8
20260509235510 25 316 1.6 3.2 0.00 4.32 4.32 64 1011.9
20260509235409 24 315 1.6 3.2 0.00 4.32 4.32 64 1011.9
20260509235311 25 315 1.6 1.6 0.00 4.32 4.32 64 1011.9
20260509235210 25 315 1.6 1.6 0.00 4.32 4.32 64 1011.8
20260509235009 24 315 1.6 3.2 0.00 4.32 4.32 64 1011.7
20260509234910 24 316 1.6 3.2 0.00 4.32 4.32 64 1011.7
20260509234810 25 316 1.6 3.2 0.00 4.32 4.32 64 1011.6
20260509234721 25 315 1.6 3.2 0.00 4.32 4.32 64 1011.6
20260509234714 25 315 1.6 3.2 0.00 4.32 4.32 64 1011.7
20260509234510 24 316 1.6 3.2 0.00 4.32 4.32 64 1011.7
20260509234410 25 316 1.6 3.2 0.00 4.32 4.32 64 1011.8
20260509234312 24 315 1.6 3.2 0.00 4.32 4.32 64 1011.8
20260509234220 24 315 1.6 3.2 0.00 4.32 4.32 64 1011.8
20260509234010 24 316 1.6 3.2 0.00 4.32 4.32 63 1011.8
20260509233940 24 316 1.6 1.6 0.00 4.32 4.32 64 1011.8
20260509233810 24 316 1.6 1.6 0.00 4.32 4.32 63 1011.8
20260509233721 25 316 1.6 1.6 0.00 4.32 4.32 64 1011.8
20260509233714 24 316 1.6 1.6 0.00 4.32 4.32 64 1011.8
20260509233510 24 316 1.6 1.6 0.00 4.32 4.32 64 1011.9
20260509233409 25 316 1.6 1.6 0.00 4.32 4.32 64 1011.9
20260509233311 24 316 1.6 1.6 0.00 4.32 4.32 64 1011.9
20260509233210 24 316 1.6 3.2 0.00 4.32 4.32 64 1011.9
20260509233010 24 316 3.2 49.9 0.00 4.32 4.32 64 1011.9
20260509232910 24 316 3.2 49.9 0.00 4.32 4.32 64 1011.9
20260509232810 24 316 6.4 57.9 0.00 4.32 4.32 64 1011.9
20260509232710 24 316 11.3 57.9 0.00 4.32 4.32 64 1012.0
20260509232504 25 316 17.7 57.9 0.00 4.32 4.32 64 1012.0
20260509232404 24 316 20.9 57.9 0.00 4.32 4.32 64 1012.0
20260509232306 24 316 22.5 57.9 0.00 4.32 4.32 64 1012.0
20260509232205 24 295 27.4 57.9 0.00 4.32 4.32 64 1011.9
20260509232004 24 316 33.8 57.9 0.00 4.32 4.32 63 1011.8
20260509231905 24 316 38.6 57.9 0.00 4.32 4.32 63 1011.8
20260509231804 25 104 38.6 57.9 0.00 4.32 4.32 63 1011.7
20260509231704 24 103 40.2 57.9 0.00 4.32 4.32 63 1011.7
20260509231505 25 98 40.2 57.9 0.00 4.32 4.32 63 1011.8
20260509231404 24 327 41.8 57.9 0.00 4.32 4.32 64 1011.8
20260509231304 25 87 43.5 57.9 0.00 4.32 4.32 64 1011.8
20260509231215 24 98 43.5 57.9 0.00 4.32 4.32 64 1011.7
20260509231208 24 98 43.5 57.9 0.00 4.32 4.32 63 1011.7
20260509231004 24 98 43.5 57.9 0.00 4.32 4.32 64 1011.7
20260509230904 25 99 41.8 56.3 0.00 4.32 4.32 64 1011.6
20260509230804 24 101 41.8 56.3 0.00 4.32 4.32 63 1011.6
20260509230704 24 98 41.8 56.3 0.00 4.34 4.32 64 1011.6
20260509230504 24 99 41.8 57.9 0.03 4.34 4.32 63 1011.7
20260509230404 24 96 41.8 57.9 0.03 4.39 4.32 64 1011.8
20260509230304 24 99 41.8 57.9 0.03 4.42 4.32 63 1011.8
20260509230205 25 98 41.8 57.9 0.03 4.45 4.32 63 1011.8
20260509230005 25 99 43.5 57.9 0.03 4.52 4.32 63 1011.9
20260509225904 24 99 45.1 57.9 0.03 4.55 4.32 63 1012.0
20260509225805 25 99 45.1 57.9 0.03 4.55 4.32 63 1012.0
20260509225704 24 98 45.1 57.9 0.03 4.57 4.32 63 1012.1
20260509225504 24 99 48.3 57.9 0.03 4.57 4.32 63 1012.1
20260509225404 24 97 48.3 53.1 0.00 4.57 4.32 63 1012.1
20260509225306 24 89 48.3 53.1 0.00 4.57 4.32 63 1012.1
20260509225204 24 88 48.3 53.1 0.03 4.57 4.32 63 1012.1
20260509225005 24 85 48.3 53.1 0.03 4.65 4.32 63 1012.3
20260509224904 24 88 48.3 53.1 0.03 4.67 4.32 63 1012.3
20260509224804 24 78 48.3 53.1 0.03 4.67 4.32 63 1012.3
20260509224712 25 71 48.3 53.1 0.03 4.70 4.32 63 1012.3
20260509224705 24 79 48.3 54.7 0.03 4.70 4.32 63 1012.3
20260509224502 24 80 46.7 54.7 0.03 4.75 4.32 63 1012.3
20260509224402 25 79 46.7 54.7 0.03 4.83 4.32 63 1012.3
20260509224301 25 87 45.1 54.7 0.03 4.88 4.32 63 1012.3
20260509224158 25 66 45.1 54.7 0.03 4.93 4.32 63 1012.2
20260509223956 25 70 45.1 54.7 0.05 4.95 4.32 63 1012.2
20260509223855 24 57 43.5 54.7 0.05 4.95 4.32 63 1012.4
20260509223756 24 81 43.5 54.7 0.05 4.98 4.32 63 1012.5
20260509223655 24 40 43.5 54.7 0.05 4.98 4.32 63 1012.5
20260509223455 24 30 43.5 51.5 0.05 4.98 4.32 63 1012.4
20260509223355 25 45 43.5 51.5 0.05 5.03 4.32 63 1012.3
20260509223258 25 20 41.8 51.5 0.05 5.03 4.32 63 1012.2
20260509223155 25 5 38.6 51.5 0.05 5.05 4.32 63 1012.2
20260509222956 25 12 32.2 51.5 0.05 5.11 4.32 63 1012.2
20260509222856 25 14 29.0 51.5 0.08 5.13 4.32 63 1012.1
20260509222756 24 356 24.1 49.9 0.08 5.13 4.32 63 1012.1
20260509222657 24 96 20.9 49.9 0.10 5.13 4.32 63 1012.1
20260509222456 24 7 14.5 49.9 0.10 5.13 4.32 64 1012.0
20260509222356 24 332 9.7 49.9 0.10 5.13 4.32 63 1012.0
20260509222257 25 317 6.4 27.4 0.10 5.13 4.32 63 1012.0
20260509222156 25 318 4.8 27.4 0.10 5.13 4.32 63 1011.9
20260509221956 24 317 4.8 27.4 0.13 5.13 4.32 63 1011.9
20260509221856 25 316 4.8 27.4 0.13 5.13 4.32 63 1011.8
20260509221756 24 316 4.8 27.4 0.13 5.13 4.32 63 1011.8
20260509221656 24 317 4.8 27.4 0.13 5.13 4.32 63 1011.9
20260509221457 24 316 4.8 4.8 0.15 5.13 4.32 63 1011.9
20260509221356 24 317 4.8 30.6 0.15 5.13 4.32 63 1011.9
20260509221257 24 317 4.8 30.6 0.15 5.13 4.32 63 1011.9
20260509221156 24 316 4.8 30.6 0.15 5.16 4.32 63 1011.8
20260509220956 24 316 4.8 30.6 0.18 5.18 4.32 63 1011.8
20260509220843 24 317 4.8 30.6 0.18 5.18 4.32 63 1011.7
20260509220742 24 316 4.8 30.6 0.18 5.18 4.32 63 1011.6
20260509220643 25 316 4.8 30.6 0.18 5.18 4.32 63 1011.6
20260509220543 24 316 4.8 30.6 0.15 5.18 4.32 63 1011.6
20260509220442 24 78 4.8 30.6 0.15 5.18 4.32 63 1011.6
20260509220427 25 316 4.8 6.4 0.15 5.18 4.32 63 1011.6
20260509220240 24 316 4.8 6.4 0.15 5.18 4.32 63 1011.6
20260509220201 25 316 4.8 6.4 0.15 5.18 4.32 63 1011.6
20260509220040 25 316 4.8 6.4 0.15 5.18 4.32 63 1011.5
20260509215940 24 317 4.8 6.4 0.15 5.18 4.32 63 1011.5
20260509215839 25 317 4.8 6.4 0.15 5.18 4.32 63 1011.5
20260509215740 25 316 4.8 6.4 0.18 5.18 4.32 63 1011.5
20260509215639 24 316 4.8 6.4 0.18 5.18 4.32 63 1011.6
20260509215539 25 317 4.8 6.4 0.18 5.18 4.32 63 1011.6
20260509215439 24 317 4.8 6.4 0.18 5.18 4.32 63 1011.6
20260509215339 24 316 4.8 6.4 0.18 5.18 4.32 63 1011.6
20260509215240 24 317 4.8 6.4 0.18 5.18 4.32 63 1011.7
20260509215140 24 316 4.8 6.4 0.15 5.18 4.29 63 1011.7
20260509215039 24 317 4.8 6.4 0.15 5.18 4.29 63 1011.7
20260509214940 25 317 4.8 6.4 0.15 5.18 4.29 63 1011.7
20260509214840 25 316 3.2 4.8 0.15 5.18 4.29 63 1011.7
20260509214740 24 315 3.2 4.8 0.15 5.18 4.29 63 1011.8
20260509214639 25 316 3.2 4.8 0.15 5.18 4.29 63 1011.8
20260509214539 24 317 3.2 4.8 0.15 5.18 4.29 63 1011.8
20260509214440 24 317 4.8 4.8 0.15 5.18 4.29 63 1011.8
20260509214339 25 317 3.2 4.8 0.15 5.16 4.29 63 1011.8
20260509214239 24 316 4.8 6.4 0.15 5.16 4.29 63 1011.8
20260509214201 24 316 4.8 6.4 0.15 5.16 4.29 63 1011.7
20260509214040 25 316 4.8 6.4 0.15 5.16 4.29 63 1011.7
20260509213940 24 317 4.8 6.4 0.15 5.16 4.29 63 1011.7
20260509213838 25 318 4.8 6.4 0.15 5.16 4.29 63 1011.8
20260509213736 24 317 3.2 6.4 0.15 5.16 4.29 63 1011.9
20260509213638 24 316 3.2 6.4 0.15 5.16 4.29 63 1011.9
20260509213538 24 317 3.2 6.4 0.15 5.16 4.29 63 1011.9
20260509213438 25 317 3.2 6.4 0.13 5.13 4.27 63 1011.8
20260509213338 25 316 3.2 6.4 0.13 5.13 4.27 63 1011.8
20260509213238 24 316 3.2 6.4 0.13 5.13 4.27 63 1011.8
20260509213138 24 317 3.2 6.4 0.13 5.13 4.27 63 1011.8
20260509213038 24 317 3.2 6.4 0.13 5.13 4.27 63 1011.8
20260509212938 24 317 3.2 6.4 0.10 5.13 4.24 63 1011.9
20260509212838 24 317 3.2 6.4 0.10 5.11 4.24 63 1011.8
20260509212738 25 317 4.8 6.4 0.10 5.11 4.24 63 1011.9
20260509212651 24 317 4.8 4.8 0.10 5.11 4.24 63 1012.0
20260509212539 24 316 4.8 6.4 0.08 5.08 4.22 63 1012.0
20260509212438 24 317 4.8 6.4 0.08 5.08 4.22 63 1012.0
20260509212338 24 316 4.8 6.4 0.08 5.08 4.22 63 1012.1
20260509212238 24 316 4.8 6.4 0.08 5.08 4.22 63 1012.1
20260509212138 24 317 4.8 6.4 0.08 5.08 4.22 63 1012.1
20260509212038 24 316 4.8 6.4 0.08 5.08 4.19 63 1012.2
20260509211938 24 316 4.8 6.4 0.08 5.08 4.19 63 1012.3
20260509211838 24 318 4.8 6.4 0.05 5.05 4.19 63 1012.3
20260509211738 24 316 4.8 6.4 0.05 5.05 4.19 63 1012.3
20260509211638 24 317 4.8 6.4 0.05 5.05 4.19 63 1012.3
20260509211538 24 316 4.8 6.4 0.05 5.05 4.19 63 1012.3
20260509211438 24 316 4.8 6.4 0.05 5.03 4.17 63 1012.3
20260509211338 25 316 4.8 6.4 0.03 5.03 4.17 63 1012.3
20260509211239 24 317 4.8 6.4 0.03 5.03 4.17 63 1012.4
20260509211138 24 317 4.8 6.4 0.03 5.03 4.17 63 1012.4
20260509211039 24 317 4.8 6.4 0.03 5.03 4.14 63 1012.4
20260509210938 24 317 4.8 6.4 0.03 5.03 4.14 63 1012.4
20260509210838 24 316 4.8 4.8 0.03 5.03 4.14 63 1012.3
20260509210738 24 317 4.8 6.4 0.03 5.03 4.14 63 1012.2
20260509210639 24 317 4.8 6.4 0.03 5.03 4.14 63 1012.1
20260509210539 24 317 4.8 6.4 0.03 5.03 4.14 63 1012.1
20260509210438 24 316 4.8 6.4 0.03 5.03 4.14 63 1012.0
20260509210238 24 317 3.2 6.4 0.03 5.03 4.14 63 1012.0
20260509210138 24 317 3.2 6.4 0.03 5.03 4.14 63 1012.0
20260509210038 24 316 3.2 6.4 0.03 5.03 4.14 63 1011.9
20260509205939 24 315 4.8 6.4 0.03 5.03 4.14 63 1011.9
20260509205839 24 316 4.8 6.4 0.03 5.00 4.14 63 1011.9
20260509205739 24 316 3.2 4.8 0.03 5.00 4.14 63 1011.9
20260509205638 24 316 3.2 4.8 0.03 5.00 4.14 63 1011.9
20260509205539 24 317 4.8 4.8 0.03 5.00 4.14 63 1011.9
20260509205338 24 317 4.8 4.8 0.03 5.00 4.14 63 1011.8
20260509205228 24 317 4.8 4.8 0.03 5.00 4.14 63 1011.7
20260509205128 24 317 4.8 4.8 0.03 5.00 4.14 63 1011.7
20260509205029 24 317 4.8 4.8 0.03 5.00 4.14 63 1011.7
20260509204928 24 317 4.8 4.8 0.03 5.00 4.14 63 1011.6
20260509204828 24 316 4.8 4.8 0.03 5.00 4.14 63 1011.6
20260509204728 24 316 4.8 4.8 0.03 5.00 4.14 63 1011.6
20260509204629 24 316 4.8 4.8 0.03 5.00 4.14 63 1011.7
20260509204528 24 316 3.2 4.8 0.03 5.00 4.14 63 1011.6
20260509204428 24 316 3.2 4.8 0.03 5.00 4.14 63 1011.6
20260509204328 24 316 3.2 4.8 0.05 5.00 4.14 63 1011.6
20260509204228 24 316 3.2 4.8 0.05 5.00 4.14 63 1011.6
20260509204128 24 316 3.2 6.4 0.05 5.00 4.14 63 1011.6
20260509204029 24 317 4.8 6.4 0.05 5.00 4.14 63 1011.6
20260509203928 24 317 4.8 6.4 0.05 5.00 4.14 63 1011.6
20260509203828 24 317 4.8 6.4 0.05 5.00 4.14 63 1011.6
20260509203729 24 316 4.8 6.4 0.08 5.00 4.14 63 1011.5
20260509203628 24 133 4.8 6.4 0.08 5.00 4.14 63 1011.4
20260509203529 24 317 4.8 6.4 0.08 5.00 4.14 63 1011.4
20260509203428 24 317 4.8 6.4 0.08 5.03 4.14 63 1011.4
20260509203329 24 317 4.8 6.4 0.08 5.03 4.14 63 1011.4
20260509203228 24 317 4.8 6.4 0.08 5.03 4.14 63 1011.5
20260509203128 24 316 4.8 6.4 0.08 5.05 4.14 63 1011.4
20260509203029 25 316 4.8 6.4 0.10 5.08 4.14 63 1011.4
20260509202928 24 316 4.8 6.4 0.10 5.16 4.14 63 1011.3
20260509202829 24 315 4.8 6.4 0.10 5.26 4.14 63 1011.3
20260509202728 24 316 4.8 6.4 0.10 5.38 4.14 63 1011.2
20260509202628 24 317 4.8 6.4 0.10 5.46 4.14 63 1011.2
20260509202529 24 317 4.8 6.4 0.10 5.49 4.14 63 1011.2
20260509202428 24 317 4.8 6.4 0.10 5.49 4.14 63 1011.3
20260509202328 24 317 4.8 6.4 0.10 5.49 4.14 63 1011.3
20260509202229 24 316 4.8 6.4 0.13 5.49 4.14 63 1011.4
20260509202127 24 130 4.8 6.4 0.10 5.46 4.14 63 1011.4
20260509202026 24 133 4.8 6.4 0.10 5.46 4.14 63 1011.4
20260509201926 24 317 4.8 6.4 0.10 5.46 4.14 63 1011.4
20260509201826 24 316 3.2 6.4 0.10 5.46 4.14 63 1011.4
20260509201713 24 316 4.8 6.4 0.13 5.46 4.14 63 1011.4
20260509201645 24 317 4.8 6.4 0.13 5.46 4.14 63 1011.3
20260509201457 24 317 3.2 6.4 0.13 5.46 4.14 63 1011.3
20260509201358 24 316 3.2 6.4 0.13 5.46 4.14 63 1011.4
20260509201258 24 316 3.2 6.4 0.13 5.46 4.14 63 1011.4
20260509201158 24 317 3.2 6.4 0.13 5.49 4.14 63 1011.5
20260509201057 24 317 3.2 6.4 0.13 5.49 4.14 63 1011.5
20260509200958 24 317 4.8 6.4 0.13 5.46 4.11 63 1011.6
20260509200858 24 316 3.2 6.4 0.13 5.46 4.11 63 1011.6
20260509200758 24 316 4.8 6.4 0.13 5.46 4.11 63 1011.6
20260509200658 24 330 3.2 6.4 0.13 5.46 4.11 63 1011.6
20260509200558 24 324 3.2 6.4 0.13 5.49 4.11 63 1011.7
20260509200459 24 101 3.2 6.4 0.15 5.49 4.11 63 1011.7
20260509200358 24 317 3.2 6.4 0.15 5.49 4.11 63 1011.7
20260509200258 24 69 3.2 6.4 0.15 5.51 4.11 63 1011.7
20260509200157 24 317 3.2 6.4 0.15 5.51 4.11 63 1011.7
20260509200058 24 69 3.2 6.4 0.15 5.51 4.11 63 1011.8
20260509195957 24 317 3.2 4.8 0.15 5.54 4.11 63 1011.8
20260509195858 24 66 3.2 4.8 0.15 5.56 4.11 63 1011.8
20260509195757 24 318 3.2 6.4 0.15 5.59 4.11 63 1011.9
20260509195658 24 76 3.2 6.4 0.15 5.61 4.11 63 1011.9
20260509195557 24 73 3.2 6.4 0.18 5.69 4.11 63 1012.0
20260509195458 24 317 3.2 6.4 0.18 5.71 4.11 63 1012.0
20260509195358 24 317 4.8 6.4 0.18 5.71 4.11 63 1012.0
20260509195259 24 318 4.8 6.4 0.18 5.74 4.11 63 1012.0
20260509195157 24 316 4.8 6.4 0.18 5.74 4.11 63 1012.0
20260509195135 24 317 4.8 8.0 0.18 5.77 4.11 63 1011.9
20260509194958 24 317 4.8 8.0 0.20 5.79 4.11 63 1012.0
20260509194858 24 317 4.8 8.0 0.20 5.82 4.11 63 1011.9
20260509194758 24 317 4.8 8.0 0.23 5.87 4.11 63 1012.0
20260509194659 24 311 4.8 8.0 0.23 5.97 4.11 63 1012.0
20260509194558 24 317 4.8 8.0 0.25 6.02 4.11 63 1012.1
20260509194457 24 312 4.8 8.0 0.25 6.07 4.11 63 1012.1
20260509194359 24 317 3.2 8.0 0.25 6.12 4.11 63 1012.1
20260509194259 24 311 3.2 8.0 0.28 6.17 4.09 63 1012.2
20260509194159 24 319 3.2 8.0 0.28 6.22 4.09 63 1012.3
20260509194058 24 315 3.2 8.0 0.28 6.30 4.09 63 1012.3
20260509193958 24 317 3.2 6.4 0.30 6.35 4.09 63 1012.4
20260509193858 24 314 3.2 6.4 0.30 6.40 4.09 63 1012.4
20260509193758 24 166 3.2 6.4 0.30 6.50 4.09 63 1012.5
20260509193658 24 331 3.2 4.8 0.36 6.60 4.06 63 1012.6
20260509193559 24 297 3.2 4.8 0.36 6.73 4.06 63 1012.7
20260509193459 24 301 3.2 4.8 0.38 6.83 4.06 63 1012.7
20260509193358 24 314 3.2 4.8 0.41 6.91 4.06 63 1012.7
20260509193259 24 321 3.2 4.8 0.43 7.09 4.06 63 1012.8
20260509193158 24 304 3.2 6.4 0.46 7.26 4.06 63 1012.7
20260509193059 24 329 3.2 6.4 0.48 7.47 4.06 63 1012.8
20260509192958 24 306 3.2 6.4 0.51 7.62 4.04 63 1012.8
20260509192859 24 329 3.2 6.4 0.51 7.72 4.04 63 1012.8
20260509192758 24 333 3.2 6.4 0.51 7.82 4.04 63 1012.9
20260509192658 24 322 3.2 8.0 0.51 7.92 4.04 63 1013.0
20260509192559 24 319 3.2 8.0 0.51 8.05 4.04 63 1013.0
20260509192458 24 332 3.2 8.0 0.53 8.15 4.04 63 1013.0
20260509192359 24 320 3.2 8.0 0.53 8.26 4.04 63 1013.0
20260509192258 24 309 3.2 8.0 0.56 8.51 4.04 63 1013.0
20260509192143 24 331 3.2 8.0 0.53 8.53 4.01 63 1013.1
20260509192042 24 315 4.8 8.0 0.56 8.53 4.01 63 1013.1
20260509191941 24 321 4.8 8.0 0.56 8.53 4.01 63 1013.1
20260509191842 24 322 4.8 8.0 0.56 8.53 4.01 63 1013.2
20260509191742 24 320 4.8 8.0 0.58 8.53 4.01 63 1013.1
20260509191631 24 309 3.2 8.0 0.58 8.53 4.01 63 1013.1
20260509191532 24 320 3.2 9.7 0.58 8.53 4.01 63 1013.1
20260509191432 24 316 4.8 9.7 0.61 8.53 4.01 63 1013.0
20260509191332 24 285 4.8 9.7 0.61 8.53 4.01 63 1012.9
20260509191233 24 313 4.8 9.7 0.61 8.51 3.99 63 1012.8
20260509191132 24 282 4.8 9.7 0.61 8.51 3.99 63 1012.8
20260509191031 24 313 4.8 9.7 0.61 8.51 3.99 63 1012.8
20260509190932 24 147 4.8 9.7 0.61 8.51 3.99 63 1012.9
20260509190831 24 137 4.8 9.7 0.61 8.51 3.99 63 1013.0
20260509190732 24 320 4.8 9.7 0.61 8.51 3.99 63 1012.9
20260509190631 24 194 6.4 9.7 0.61 8.51 3.99 63 1012.9
20260509190531 24 296 6.4 9.7 0.61 8.51 3.99 63 1013.0
20260509190431 24 324 6.4 9.7 0.61 8.51 3.99 63 1013.1
20260509190332 24 311 6.4 9.7 0.61 8.51 3.99 63 1013.1
20260509190234 24 176 4.8 9.7 0.61 8.48 3.96 63 1013.0
20260509190132 24 315 4.8 9.7 0.61 8.48 3.96 63 1013.0
20260509190032 24 316 4.8 9.7 0.64 8.48 3.96 63 1012.9
20260509185932 24 309 4.8 9.7 0.64 8.48 3.96 63 1012.8
20260509185831 24 287 4.8 9.7 0.64 8.48 3.96 63 1012.8
20260509185732 24 329 4.8 9.7 0.66 8.48 3.96 63 1012.7
20260509185631 24 320 4.8 9.7 0.66 8.46 3.96 63 1012.8
20260509185618 24 296 4.8 9.7 0.66 8.46 3.96 63 1012.8
20260509185431 24 251 4.8 9.7 0.66 8.46 3.96 63 1012.9
20260509185332 24 318 4.8 9.7 0.66 8.46 3.94 63 1013.0
20260509185234 24 327 4.8 9.7 0.69 8.46 3.94 63 1013.0
20260509185132 24 300 6.4 9.7 0.66 8.46 3.94 63 1013.1
20260509185033 24 329 6.4 9.7 0.66 8.43 3.91 63 1013.0
20260509184932 24 314 6.4 9.7 0.66 8.41 3.91 63 1013.0
20260509184832 24 322 6.4 9.7 0.61 8.38 3.89 63 1013.1
20260509184732 24 338 6.4 9.7 0.64 8.38 3.86 63 1013.0
20260509184631 24 325 4.8 9.7 0.61 8.38 3.86 63 1013.0
20260509184618 24 320 4.8 8.0 0.61 8.38 3.86 63 1012.9
20260509184431 24 319 4.8 8.0 0.61 8.38 3.86 63 1012.8
20260509184332 24 322 4.8 8.0 0.58 8.36 3.84 63 1012.8
20260509184234 24 328 4.8 8.0 0.58 8.33 3.81 63 1012.8
20260509184132 24 317 4.8 9.7 0.56 8.33 3.81 63 1012.9
20260509184032 24 324 4.8 16.1 0.53 8.31 3.78 63 1012.8
20260509183931 24 317 4.8 17.7 0.53 8.31 3.78 63 1012.9
20260509183832 24 321 6.4 17.7 0.53 8.28 3.76 63 1013.0
20260509183732 24 167 6.4 17.7 0.48 8.23 3.73 63 1013.1
20260509183632 24 102 6.4 17.7 0.48 8.23 3.71 63 1013.1
20260509183532 24 116 6.4 17.7 0.43 8.18 3.66 63 1013.1
20260509183432 24 138 8.0 17.7 0.43 8.18 3.66 63 1013.2
20260509183332 24 325 8.0 17.7 0.41 8.15 3.63 63 1013.3
20260509183234 24 317 9.7 17.7 0.38 8.13 3.61 63 1013.5
20260509183132 24 325 9.7 17.7 0.36 8.10 3.58 63 1013.5
20260509183118 24 204 9.7 17.7 0.33 8.08 3.56 63 1013.6
20260509182932 24 208 9.7 17.7 0.33 8.08 3.56 63 1013.6
20260509182832 24 197 9.7 17.7 0.33 8.05 3.53 63 1013.5
20260509182732 24 193 9.7 16.1 0.33 8.05 3.53 63 1013.5
20260509182632 24 200 8.0 17.7 0.30 8.05 3.53 63 1013.5
20260509182618 24 166 8.0 17.7 0.28 8.03 3.51 63 1013.4
20260509182432 24 181 8.0 17.7 0.28 8.00 3.48 63 1013.4
20260509182332 24 244 8.0 17.7 0.28 8.00 3.48 63 1013.3
20260509182233 24 246 8.0 17.7 0.28 8.00 3.48 63 1013.2
20260509182133 24 188 8.0 17.7 0.25 8.00 3.48 63 1013.1
20260509182032 24 209 6.4 17.7 0.25 7.98 3.45 63 1013.0
20260509181933 24 275 6.4 17.7 0.23 7.98 3.45 63 1013.0
20260509181832 24 256 6.4 17.7 0.23 7.95 3.43 63 1012.9
20260509181732 24 319 6.4 17.7 0.23 7.95 3.43 63 1012.8
20260509181632 24 314 6.4 17.7 0.23 7.95 3.43 63 1012.7
20260509181532 24 278 6.4 12.9 0.23 7.95 3.43 63 1012.7
20260509181432 24 278 6.4 12.9 0.20 7.92 3.40 63 1012.6
20260509181332 24 197 4.8 11.3 0.20 7.92 3.40 63 1012.7
20260509181234 24 318 4.8 8.0 0.20 7.92 3.40 63 1012.8
20260509181129 24 170 4.8 8.0 0.20 7.90 3.38 63 1012.9
20260509181119 24 22 4.8 6.4 0.20 7.90 3.38 63 1013.0
20260509180929 24 35 4.8 6.4 0.20 7.90 3.38 63 1013.1
20260509180829 24 65 4.8 6.4 0.20 7.90 3.38 63 1013.1
20260509180729 24 43 4.8 6.4 0.20 7.90 3.38 63 1013.1
20260509180629 24 57 4.8 6.4 0.20 7.90 3.38 63 1013.1
20260509180529 24 63 4.8 8.0 0.20 7.87 3.35 63 1012.9
20260509180429 24 337 4.8 8.0 0.20 7.87 3.35 63 1012.9
20260509180328 24 83 4.8 8.0 0.20 7.87 3.35 63 1012.7
20260509180230 24 328 4.8 8.0 0.20 7.87 3.35 63 1012.6
20260509180129 24 63 4.8 8.0 0.20 7.87 3.35 63 1012.4
20260509175929 24 32 4.8 16.1 0.18 7.85 3.33 63 1012.2
20260509175830 24 42 4.8 16.1 0.18 7.85 3.33 63 1012.2
20260509175729 24 55 4.8 16.1 0.15 7.82 3.30 63 1012.4
20260509175629 24 29 4.8 16.1 0.15 7.82 3.30 63 1012.6
20260509175520 24 15 4.8 16.1 0.15 7.80 3.30 63 1012.8
20260509175420 24 326 4.8 16.1 0.15 7.80 3.28 63 1012.9
20260509175320 24 130 4.8 16.1 0.13 7.80 3.28 63 1013.0
20260509175222 24 321 4.8 16.1 0.13 7.77 3.25 63 1013.0
20260509175120 24 311 4.8 16.1 0.13 7.77 3.25 63 1013.0
20260509175021 24 129 6.4 16.1 0.10 7.77 3.25 63 1013.0
20260509174920 24 340 6.4 12.9 0.10 7.77 3.25 63 1013.0
20260509174820 24 332 6.4 12.9 0.10 7.77 3.25 63 1013.0
20260509174720 24 331 6.4 12.9 0.10 7.77 3.25 63 1013.1
20260509174621 24 337 6.4 16.1 0.10 7.77 3.25 63 1013.1
20260509174520 24 133 6.4 16.1 0.10 7.77 3.25 63 1013.1
20260509174421 24 129 6.4 16.1 0.10 7.77 3.25 63 1013.1
20260509174321 24 313 6.4 16.1 0.10 7.77 3.25 63 1013.1
20260509174222 24 136 6.4 16.1 0.10 7.77 3.25 63 1013.1
20260509174121 24 336 6.4 16.1 0.13 7.77 3.25 63 1013.1
20260509174020 24 308 6.4 16.1 0.13 7.77 3.25 63 1013.0
20260509173921 24 311 6.4 16.1 0.13 7.77 3.25 63 1012.9
20260509173820 24 290 6.4 16.1 0.15 7.77 3.25 63 1012.9
20260509173721 24 147 6.4 16.1 0.15 7.77 3.25 63 1013.0
20260509173620 24 139 6.4 16.1 0.15 7.77 3.25 63 1012.9
20260509173521 24 142 6.4 12.9 0.15 7.77 3.25 63 1012.8
20260509173421 24 144 6.4 12.9 0.15 7.75 3.23 63 1012.8
20260509173315 24 187 4.8 12.9 0.15 7.75 3.23 63 1012.7
20260509173220 24 136 4.8 12.9 0.15 7.75 3.23 63 1012.6
20260509173114 24 25 4.8 9.7 0.15 7.75 3.23 63 1012.6
20260509173107 24 321 4.8 9.7 0.15 7.75 3.23 63 1012.7
20260509172915 24 93 4.8 9.7 0.15 7.75 3.23 63 1012.8
20260509172814 24 136 4.8 9.7 0.15 7.75 3.23 63 1012.9
20260509172716 24 124 4.8 6.4 0.15 7.75 3.23 63 1013.0
20260509172615 24 166 4.8 6.4 0.15 7.75 3.23 63 1013.0
20260509172515 24 232 4.8 6.4 0.15 7.75 3.23 63 1013.0
20260509172414 24 338 4.8 6.4 0.13 7.72 3.20 63 1013.1
20260509172315 24 356 4.8 6.4 0.13 7.72 3.20 63 1013.1
20260509172219 24 314 4.8 6.4 0.13 7.72 3.20 63 1013.2
20260509172114 24 152 4.8 6.4 0.13 7.72 3.20 63 1013.2
20260509172015 24 321 4.8 6.4 0.15 7.72 3.20 63 1013.2
20260509171915 24 325 4.8 6.4 0.15 7.72 3.20 63 1013.2
20260509171815 24 348 4.8 6.4 0.15 7.72 3.20 63 1013.3
20260509171715 24 324 4.8 6.4 0.15 7.72 3.20 63 1013.3
20260509171614 24 345 4.8 6.4 0.15 7.72 3.20 63 1013.2
20260509171515 24 333 4.8 6.4 0.18 7.72 3.20 63 1013.2
20260509171415 24 325 4.8 6.4 0.20 7.72 3.20 63 1013.1
20260509171315 24 313 4.8 6.4 0.20 7.72 3.20 63 1012.9
20260509171221 24 308 4.8 6.4 0.20 7.72 3.20 63 1012.7
20260509171115 24 128 4.8 6.4 0.20 7.72 3.20 63 1012.4
20260509171015 24 314 4.8 6.4 0.20 7.72 3.20 63 1012.1
20260509170915 24 132 4.8 6.4 0.20 7.70 3.17 63 1011.9
20260509170816 24 128 4.8 6.4 0.23 7.70 3.17 63 1011.8
20260509170715 24 318 4.8 6.4 0.25 7.70 3.17 63 1011.9
20260509170615 24 322 4.8 6.4 0.28 7.67 3.15 63 1012.1
20260509170515 24 315 4.8 6.4 0.28 7.67 3.15 63 1012.3
20260509170418 24 315 4.8 6.4 0.28 7.67 3.15 63 1012.4
20260509170315 24 309 4.8 6.4 0.28 7.67 3.15 63 1012.5
20260509170217 24 130 4.8 6.4 0.28 7.67 3.15 63 1012.7
20260509170115 24 320 4.8 6.4 0.28 7.67 3.15 63 1012.8
20260509170016 24 314 4.8 6.4 0.28 7.67 3.15 63 1012.8
20260509165915 24 314 4.8 6.4 0.28 7.67 3.15 63 1012.8
20260509165815 24 316 4.8 6.4 0.33 7.67 3.15 63 1012.8
20260509165715 24 316 4.8 6.4 0.36 7.67 3.15 63 1012.8
20260509165615 24 54 4.8 6.4 0.41 7.67 3.15 63 1012.8
20260509165516 24 148 4.8 6.4 0.51 7.67 3.15 63 1012.9
20260509165416 24 312 4.8 6.4 0.58 7.67 3.15 63 1013.0
20260509165315 24 333 4.8 6.4 0.61 7.67 3.15 63 1012.9
20260509165221 24 334 4.8 6.4 0.61 7.67 3.15 63 1012.9
20260509165115 24 340 4.8 6.4 0.64 7.67 3.15 63 1013.0
20260509165015 24 309 4.8 6.4 0.66 7.67 3.15 63 1013.0
20260509164915 24 293 4.8 6.4 0.66 7.67 3.15 63 1013.1
20260509164815 24 327 4.8 6.4 0.69 7.67 3.15 63 1013.1
20260509164715 24 336 4.8 6.4 0.69 7.67 3.15 63 1013.1
20260509164616 24 324 4.8 6.4 0.69 7.67 3.15 63 1013.1
20260509164515 24 135 4.8 6.4 0.71 7.67 3.15 63 1013.1
20260509164416 24 316 4.8 6.4 0.71 7.67 3.15 63 1013.1
20260509164315 24 302 4.8 8.0 0.74 7.65 3.12 62 1013.0
20260509164219 24 141 4.8 8.0 0.76 7.65 3.12 62 1013.0
20260509164115 24 136 6.4 8.0 0.74 7.65 3.12 63 1013.0
20260509164015 24 317 6.4 8.0 0.76 7.65 3.12 63 1013.1
20260509163915 24 325 6.4 8.0 0.76 7.62 3.10 63 1013.2
20260509163816 24 313 6.4 8.0 0.76 7.62 3.10 63 1013.3
20260509163715 24 134 6.4 8.0 0.74 7.62 3.10 62 1013.4
20260509163615 24 321 6.4 8.0 0.74 7.62 3.10 63 1013.4
20260509163503 24 83 6.4 8.0 0.74 7.62 3.10 63 1013.4
20260509163404 24 318 6.4 8.0 0.74 7.59 3.07 63 1013.3
20260509163303 24 117 6.4 8.0 0.74 7.59 3.07 62 1013.2
20260509163206 24 136 6.4 8.0 0.74 7.59 3.07 62 1013.2
20260509163104 24 59 6.4 8.0 0.74 7.59 3.07 63 1013.2
20260509163004 24 324 6.4 8.0 0.74 7.59 3.07 63 1013.2
20260509162900 24 285 4.8 6.4 0.74 7.59 3.07 62 1013.2
20260509162801 24 131 4.8 6.4 0.74 7.59 3.07 62 1013.2
20260509162700 24 132 4.8 6.4 0.74 7.59 3.07 62 1013.2
20260509162600 24 134 4.8 6.4 0.74 7.59 3.07 62 1013.2
20260509162501 24 319 4.8 8.0 0.74 7.59 3.07 62 1013.2
20260509162400 24 313 4.8 8.0 0.74 7.59 3.07 63 1013.2
20260509162301 24 315 4.8 8.0 0.74 7.59 3.07 63 1013.2
20260509162202 24 310 4.8 8.0 0.74 7.59 3.07 62 1013.2
20260509162100 24 327 4.8 8.0 0.74 7.59 3.07 63 1013.2
20260509162001 24 319 4.8 8.0 0.74 7.59 3.07 62 1013.2
20260509161846 24 316 4.8 8.0 0.76 7.59 3.07 62 1013.1
20260509161745 24 316 4.8 8.0 0.76 7.57 3.05 63 1013.0
20260509161646 24 315 4.8 8.0 0.76 7.57 3.05 62 1012.9
20260509161555 24 327 4.8 8.0 0.74 7.57 3.05 62 1012.8
20260509161548 24 322 4.8 8.0 0.76 7.54 3.02 62 1012.7
20260509161345 24 318 4.8 6.4 0.74 7.52 3.00 62 1012.7
20260509161246 24 317 4.8 6.4 0.76 7.52 3.00 63 1012.7
20260509161147 24 316 4.8 6.4 0.84 7.52 3.00 63 1012.8
20260509161045 24 318 4.8 6.4 0.84 7.52 3.00 62 1012.8
20260509160948 24 315 4.8 6.4 0.86 7.52 3.00 62 1012.9
20260509160845 24 122 4.8 6.4 0.89 7.49 2.97 62 1013.0
20260509160807 24 322 4.8 6.4 0.91 7.47 2.97 62 1013.1
20260509160646 24 322 4.8 6.4 0.94 7.44 2.92 62 1013.2
20260509160555 24 320 4.8 6.4 0.97 7.39 2.87 62 1013.2
20260509160548 24 323 4.8 6.4 1.02 7.39 2.87 63 1013.3
20260509160346 24 316 4.8 6.4 1.02 7.39 2.87 63 1013.3
20260509160244 24 315 3.2 6.4 1.04 7.39 2.87 63 1013.5
20260509160143 24 319 3.2 6.4 1.04 7.39 2.87 62 1013.5
20260509160044 24 310 3.2 6.4 1.04 7.39 2.87 63 1013.5
20260509155844 24 315 3.2 4.8 0.99 7.34 2.82 62 1013.3
20260509155744 24 314 3.2 4.8 0.97 7.32 2.79 62 1013.2
20260509155644 24 333 3.2 4.8 0.94 7.26 2.74 62 1013.0
20260509155545 24 316 3.2 6.4 0.84 7.16 2.64 62 1012.9
20260509155345 24 324 3.2 6.4 0.74 7.04 2.51 62 1013.0
20260509155244 24 317 3.2 6.4 0.76 7.04 2.51 62 1013.2
20260509155144 24 311 3.2 6.4 0.76 7.04 2.51 62 1013.3
20260509155044 24 312 3.2 6.4 0.76 7.01 2.49 62 1013.3
20260509154844 24 308 3.2 6.4 0.84 6.99 2.46 62 1013.2
20260509154745 24 315 3.2 6.4 0.89 6.99 2.46 62 1013.2
20260509154644 24 316 4.8 6.4 0.99 6.96 2.44 62 1013.3
20260509154545 24 310 4.8 6.4 1.07 6.96 2.44 62 1013.4
20260509154345 24 335 4.8 6.4 1.04 6.91 2.39 62 1013.4
20260509154244 24 320 4.8 6.4 1.04 6.91 2.39 62 1013.4
20260509154144 24 308 4.8 6.4 1.04 6.91 2.39 62 1013.3